CCM6205 LFKJ-KSFO

Flight info

Callsign CCM6205
Flight time N/A
Altitude 28000
Route VAREK DCT PADKO UY342 BULTO Y341 SALIN Y25 FJR DCT PIMQO DCT MANAK/N0496F300 UT183 BAGAD DCT DOLUR DCT LEDGO DCT UNBEG DCT ADBUS DCT ETARI/M084F320 DCT 57N020W 60N030W 62N040W 63N050W/M085F340 DCT KENKI/N0492F360 DCT YTE J540 YEK/N0485F380 J540 YVC Q959 MEETO Q896 YQL J540 MLP J537 REO J7 FMG MOD9
Aircraft B77W/H-SDE1E2E3FGHIJ2J3J4J5M1RWXY/LB1D1

Departure

Time 2026-04-11 09:48
Airport Ajaccio Napoléon Bonaparte airport (LFKJ)

Arrival

Time N/A
Airport San Francisco International Airport (KSFO)
Time Latitude Longitude Altitude Speed Heading
2026-04-11 09:01 41.92232 8.79716 31 ft 0 kts 345°
2026-04-11 09:04 41.92231 8.79716 31 ft 0 kts 345°
2026-04-11 09:12 41.92231 8.79717 31 ft 0 kts 345°
2026-04-11 09:12 41.92231 8.79716 31 ft 0 kts 345°
2026-04-11 09:13 41.92231 8.79717 31 ft 0 kts 345°
2026-04-11 09:26 41.92230 8.79717 31 ft 0 kts 345°
2026-04-11 09:41 41.92235 8.79716 31 ft 2 kts 353°
2026-04-11 09:41 41.92249 8.79721 31 ft 3 kts 21°
2026-04-11 09:41 41.92263 8.79738 31 ft 3 kts 47°
2026-04-11 09:41 41.92274 8.79760 31 ft 3 kts 59°
2026-04-11 09:42 41.92282 8.79784 31 ft 4 kts 71°
2026-04-11 09:42 41.92290 8.79864 31 ft 12 kts 89°
2026-04-11 09:42 41.92283 8.79994 27 ft 17 kts 96°
2026-04-11 09:43 41.92380 8.80234 29 ft 17 kts 24°
2026-04-11 09:43 41.92488 8.80299 30 ft 17 kts 25°
2026-04-11 09:43 41.92594 8.80367 29 ft 17 kts 26°
2026-04-11 09:43 41.92701 8.80436 31 ft 17 kts 25°
2026-04-11 09:44 41.92809 8.80504 34 ft 17 kts 25°
2026-04-11 09:44 41.92916 8.80570 36 ft 17 kts 24°
2026-04-11 09:44 41.93024 8.80635 36 ft 17 kts 21°
2026-04-11 09:44 41.93130 8.80654 36 ft 13 kts 24°
2026-04-11 09:45 41.93119 8.80704 36 ft 7 kts 203°
2026-04-11 09:45 41.93095 8.80687 37 ft 0 kts 200°
2026-04-11 09:47 41.93084 8.80682 37 ft 0 kts 200°
2026-04-11 09:47 41.93004 8.80633 36 ft 46 kts 205°
2026-04-11 09:47 41.92458 8.80291 30 ft 125 kts 205°
2026-04-11 09:48 41.91455 8.79668 31 ft 192 kts 206°
2026-04-11 09:48 41.90174 8.78896 635 ft 206 kts 205°
2026-04-11 09:48 41.88821 8.78056 1288 ft 220 kts 207°
2026-04-11 09:48 41.87648 8.76779 2021 ft 222 kts 240°
2026-04-11 09:49 41.87220 8.74781 2234 ft 234 kts 272°
2026-04-11 09:49 41.87497 8.72569 2463 ft 246 kts 285°
2026-04-11 09:49 41.87997 8.70316 2744 ft 256 kts 286°
2026-04-11 09:49 41.88465 8.68024 3300 ft 258 kts 285°
2026-04-11 09:50 41.88945 8.65685 3874 ft 260 kts 285°
2026-04-11 09:50 41.89418 8.63369 4453 ft 260 kts 285°
2026-04-11 09:50 41.89941 8.61033 4998 ft 260 kts 289°
2026-04-11 09:50 41.90762 8.58867 5362 ft 263 kts 310°
2026-04-11 09:51 41.92008 8.57055 5815 ft 265 kts 313°
2026-04-11 09:51 41.93252 8.55261 6393 ft 265 kts 312°
2026-04-11 09:51 41.94502 8.53448 6934 ft 264 kts 314°
2026-04-11 09:51 41.95801 8.51692 7303 ft 266 kts 313°
2026-04-11 09:52 41.97031 8.49806 7685 ft 270 kts 309°
2026-04-11 09:52 41.98243 8.47875 8233 ft 270 kts 311°
2026-04-11 09:52 41.99491 8.45996 8752 ft 271 kts 312°
2026-04-11 09:52 42.00758 8.44113 9264 ft 272 kts 312°
2026-04-11 09:53 42.02034 8.42219 9759 ft 274 kts 312°
2026-04-11 09:53 42.03318 8.40310 10202 ft 276 kts 312°
2026-04-11 09:53 42.04610 8.38385 10631 ft 278 kts 312°
2026-04-11 09:53 42.05916 8.36434 11057 ft 281 kts 311°
2026-04-11 09:54 42.07245 8.34444 11319 ft 291 kts 311°
2026-04-11 09:54 42.08600 8.32412 11561 ft 301 kts 311°
2026-04-11 09:54 42.10037 8.30253 11676 ft 318 kts 311°
2026-04-11 09:54 42.11556 8.27970 11823 ft 335 kts 311°
2026-04-11 09:55 42.13151 8.25568 11966 ft 352 kts 311°
2026-04-11 09:55 42.14814 8.23062 12253 ft 364 kts 311°
2026-04-11 09:55 42.16528 8.20478 12677 ft 373 kts 311°
2026-04-11 09:55 42.18264 8.17858 13234 ft 377 kts 311°
2026-04-11 09:56 42.20019 8.15206 13850 ft 380 kts 311°
2026-04-11 09:56 42.21785 8.12535 14410 ft 383 kts 311°
2026-04-11 09:56 42.23563 8.09843 14974 ft 385 kts 311°
2026-04-11 09:56 42.25354 8.07129 15544 ft 388 kts 310°
2026-04-11 09:57 42.27155 8.04400 16071 ft 391 kts 310°
2026-04-11 09:57 42.28972 8.01642 16617 ft 394 kts 310°
2026-04-11 09:57 42.30711 7.98764 17144 ft 397 kts 304°
2026-04-11 09:57 42.32219 7.95630 17688 ft 399 kts 298°
2026-04-11 09:58 42.33483 7.92275 18208 ft 402 kts 295°
2026-04-11 09:58 42.34707 7.88862 18680 ft 405 kts 295°
2026-04-11 09:58 42.35921 7.85470 19179 ft 406 kts 295°
2026-04-11 09:58 42.37153 7.82029 19695 ft 407 kts 295°
2026-04-11 09:59 42.38397 7.78561 20170 ft 410 kts 295°
2026-04-11 09:59 42.39647 7.75082 20609 ft 413 kts 295°
2026-04-11 09:59 42.40907 7.71579 21074 ft 415 kts 295°
2026-04-11 09:59 42.42176 7.68050 21541 ft 417 kts 295°
2026-04-11 10:00 42.43449 7.64510 21989 ft 419 kts 295°
2026-04-11 10:00 42.44726 7.60956 22439 ft 421 kts 295°
2026-04-11 10:00 42.46013 7.57370 22873 ft 424 kts 294°
2026-04-11 10:00 42.47305 7.53764 23258 ft 427 kts 294°
2026-04-11 10:01 42.48607 7.50128 23664 ft 430 kts 294°
2026-04-11 10:01 42.49898 7.46516 24008 ft 432 kts 294°
2026-04-11 10:01 42.51209 7.42845 24368 ft 434 kts 294°
2026-04-11 10:01 42.52523 7.39157 24716 ft 436 kts 294°
2026-04-11 10:02 42.53848 7.35437 25042 ft 438 kts 294°
2026-04-11 10:02 42.55173 7.31712 25369 ft 440 kts 294°
2026-04-11 10:02 42.56505 7.27960 25682 ft 442 kts 294°
2026-04-11 10:02 42.57841 7.24192 26005 ft 444 kts 293°
2026-04-11 10:03 42.59186 7.20395 26316 ft 446 kts 293°
2026-04-11 10:03 42.60530 7.16595 26622 ft 448 kts 293°
2026-04-11 10:03 42.61883 7.12763 26923 ft 450 kts 293°
2026-04-11 10:03 42.63237 7.08924 27218 ft 452 kts 293°
2026-04-11 10:04 42.64600 7.05056 27509 ft 454 kts 293°
2026-04-11 10:04 42.65946 7.01229 27791 ft 456 kts 293°
2026-04-11 10:04 42.67317 6.97324 27949 ft 460 kts 293°
2026-04-11 10:04 42.68700 6.93378 27976 ft 462 kts 293°
2026-04-11 10:05 42.70078 6.89446 28027 ft 460 kts 293°
2026-04-11 10:05 42.72814 6.81625 28025 ft 457 kts 292°
2026-04-11 10:06 42.75534 6.73821 28020 ft 455 kts 292°
2026-04-11 10:06 42.78239 6.66035 28023 ft 455 kts 292°
2026-04-11 10:07 42.80941 6.58236 28023 ft 455 kts 292°
2026-04-11 10:07 42.83644 6.50415 28031 ft 456 kts 292°
2026-04-11 10:08 42.86343 6.42580 28024 ft 458 kts 292°
2026-04-11 10:08 42.89031 6.34759 28017 ft 458 kts 292°
2026-04-11 10:09 42.91733 6.26871 28020 ft 459 kts 292°
2026-04-11 10:09 42.94434 6.18967 28021 ft 459 kts 292°
2026-04-11 10:10 42.97133 6.11043 28021 ft 459 kts 292°
2026-04-11 10:10 42.99817 6.03142 28023 ft 459 kts 291°
2026-04-11 10:11 43.02043 5.96569 28025 ft 459 kts 291°
2026-04-11 10:11 43.05153 5.87361 28023 ft 459 kts 291°
2026-04-11 10:11 43.06491 5.83390 27999 ft 459 kts 291°
2026-04-11 10:12 43.07822 5.79435 28019 ft 459 kts 291°
2026-04-11 10:12 43.10059 5.72773 27997 ft 459 kts 291°
2026-04-11 10:13 43.12720 5.64828 28004 ft 460 kts 291°
2026-04-11 10:13 43.14049 5.60849 27986 ft 460 kts 291°
2026-04-11 10:13 43.15360 5.56920 27990 ft 460 kts 291°
2026-04-11 10:13 43.16705 5.52884 27984 ft 460 kts 291°
2026-04-11 10:14 43.18019 5.48931 27989 ft 460 kts 291°
2026-04-11 10:14 43.19344 5.44946 27976 ft 461 kts 291°
2026-04-11 10:14 43.20684 5.40907 27982 ft 461 kts 291°
2026-04-11 10:14 43.21970 5.36895 27980 ft 459 kts 288°
2026-04-11 10:15 43.22978 5.32746 27974 ft 457 kts 282°
2026-04-11 10:15 43.23709 5.28568 27970 ft 455 kts 277°
2026-04-11 10:15 43.24153 5.24274 27981 ft 453 kts 274°
2026-04-11 10:15 43.24547 5.19977 27973 ft 453 kts 274°
2026-04-11 10:16 43.24948 5.15680 27971 ft 454 kts 275°
2026-04-11 10:16 43.25358 5.11387 27970 ft 454 kts 275°
2026-04-11 10:16 43.25775 5.07086 27963 ft 454 kts 275°
2026-04-11 10:16 43.26193 5.02797 27965 ft 454 kts 275°
2026-04-11 10:17 43.26606 4.98550 27972 ft 454 kts 275°
2026-04-11 10:17 43.27021 4.94254 27987 ft 453 kts 275°
2026-04-11 10:17 43.27423 4.89956 27981 ft 453 kts 273°
2026-04-11 10:17 43.27675 4.85645 27967 ft 452 kts 271°
2026-04-11 10:18 43.27881 4.81376 27974 ft 452 kts 271°
2026-04-11 10:18 43.28211 4.77073 27967 ft 454 kts 277°
2026-04-11 10:18 43.28969 4.72849 27971 ft 457 kts 284°
2026-04-11 10:18 43.30052 4.68720 27978 ft 460 kts 289°
2026-04-11 10:19 43.31469 4.64766 27977 ft 463 kts 295°
2026-04-11 10:19 43.33043 4.60946 27976 ft 463 kts 295°
2026-04-11 10:19 43.34628 4.57089 27993 ft 464 kts 295°
2026-04-11 10:19 43.36198 4.53203 27991 ft 464 kts 295°
2026-04-11 10:20 43.37750 4.49307 27983 ft 464 kts 295°
2026-04-11 10:20 43.39298 4.45394 27977 ft 464 kts 295°
2026-04-11 10:20 43.40809 4.41524 27984 ft 464 kts 294°
2026-04-11 10:20 43.42336 4.37586 27981 ft 464 kts 294°
2026-04-11 10:21 43.43855 4.33663 27988 ft 464 kts 294°
2026-04-11 10:21 43.45375 4.29737 27988 ft 464 kts 294°
2026-04-11 10:21 43.46877 4.25853 27990 ft 464 kts 294°
2026-04-11 10:21 43.48401 4.21915 27989 ft 464 kts 294°
2026-04-11 10:22 43.49919 4.17986 28002 ft 464 kts 294°
2026-04-11 10:22 43.51422 4.14090 27991 ft 465 kts 295°
2026-04-11 10:22 43.52945 4.10139 27994 ft 465 kts 295°
2026-04-11 10:22 43.54472 4.06172 27999 ft 465 kts 295°
2026-04-11 10:23 43.55989 4.02225 27997 ft 466 kts 294°
2026-04-11 10:23 43.57551 3.98364 27993 ft 468 kts 298°
2026-04-11 10:23 43.59405 3.94620 27995 ft 472 kts 305°
2026-04-11 10:23 43.61500 3.91101 27995 ft 474 kts 307°
2026-04-11 10:24 43.63603 3.87623 27992 ft 475 kts 307°
2026-04-11 10:24 43.65716 3.84118 27988 ft 475 kts 306°
2026-04-11 10:24 43.67837 3.80583 27983 ft 475 kts 306°
2026-04-11 10:24 43.69941 3.77055 27988 ft 476 kts 307°
2026-04-11 10:25 43.72021 3.73551 27981 ft 476 kts 306°
2026-04-11 10:25 43.74118 3.70006 27983 ft 476 kts 306°
2026-04-11 10:25 43.76218 3.66448 27984 ft 476 kts 306°
2026-04-11 10:25 43.78313 3.62892 27991 ft 475 kts 306°
2026-04-11 10:26 43.80372 3.59393 27986 ft 475 kts 306°
2026-04-11 10:26 43.82466 3.55831 27982 ft 475 kts 306°
2026-04-11 10:26 43.84558 3.52270 27984 ft 474 kts 306°
2026-04-11 10:26 43.86617 3.48758 27985 ft 474 kts 306°
2026-04-11 10:27 43.88693 3.45215 27979 ft 473 kts 306°
2026-04-11 10:27 43.90778 3.41650 27974 ft 473 kts 306°
2026-04-11 10:27 43.92835 3.38131 27980 ft 472 kts 306°
2026-04-11 10:27 43.94890 3.34609 27983 ft 472 kts 306°
2026-04-11 10:28 43.96966 3.31048 27984 ft 473 kts 306°
2026-04-11 10:28 43.99037 3.27491 27991 ft 473 kts 306°
2026-04-11 10:28 44.01097 3.23949 27988 ft 473 kts 306°
2026-04-11 10:28 44.03164 3.20390 27980 ft 473 kts 306°
2026-04-11 10:29 44.05237 3.16817 27970 ft 472 kts 306°
2026-04-11 10:29 44.07289 3.13275 27962 ft 472 kts 306°
2026-04-11 10:29 44.09353 3.09709 27972 ft 472 kts 306°
2026-04-11 10:29 44.11393 3.06179 27974 ft 472 kts 306°
2026-04-11 10:30 44.13450 3.02614 27966 ft 472 kts 306°
2026-04-11 10:30 44.15528 2.99049 27953 ft 472 kts 306°
2026-04-11 10:30 44.17578 2.95535 27969 ft 472 kts 307°
2026-04-11 10:30 44.19654 2.91984 27967 ft 471 kts 306°
2026-04-11 10:31 44.21699 2.88411 27979 ft 472 kts 306°
2026-04-11 10:31 44.23746 2.84808 27966 ft 473 kts 306°
2026-04-11 10:31 44.25793 2.81199 27967 ft 474 kts 306°
2026-04-11 10:31 44.27817 2.77633 27970 ft 474 kts 306°
2026-04-11 10:32 44.29869 2.74024 27979 ft 475 kts 306°
2026-04-11 10:32 44.31928 2.70409 27996 ft 476 kts 306°
2026-04-11 10:32 44.33989 2.66789 28005 ft 476 kts 306°
2026-04-11 10:32 44.36056 2.63158 27989 ft 477 kts 306°
2026-04-11 10:33 44.38125 2.59521 27998 ft 476 kts 306°
2026-04-11 10:33 44.42223 2.52305 28001 ft 475 kts 306°
2026-04-11 10:33 44.44276 2.48682 27987 ft 474 kts 306°
2026-04-11 10:34 44.46303 2.45102 27988 ft 472 kts 306°
2026-04-11 10:34 44.48340 2.41497 27986 ft 471 kts 306°
2026-04-11 10:34 44.50370 2.37902 27984 ft 470 kts 305°
2026-04-11 10:34 44.52404 2.34294 27982 ft 470 kts 305°
2026-04-11 10:35 44.54438 2.30680 27986 ft 470 kts 305°
2026-04-11 10:35 44.56467 2.27071 27997 ft 470 kts 305°
2026-04-11 10:35 44.58470 2.23503 27978 ft 471 kts 305°
2026-04-11 10:35 44.60499 2.19887 27986 ft 471 kts 305°
2026-04-11 10:36 44.62528 2.16265 27976 ft 472 kts 305°
2026-04-11 10:36 44.64539 2.12671 27972 ft 472 kts 305°
2026-04-11 10:36 44.66568 2.09039 27970 ft 472 kts 305°
2026-04-11 10:36 44.68595 2.05408 27968 ft 472 kts 305°
2026-04-11 10:37 44.70627 2.01762 27966 ft 472 kts 305°
2026-04-11 10:37 44.72657 1.98114 27963 ft 472 kts 305°
2026-04-11 10:37 44.74687 1.94464 27964 ft 472 kts 305°
2026-04-11 10:37 44.76692 1.90853 27975 ft 472 kts 305°
2026-04-11 10:38 44.78719 1.87199 27952 ft 473 kts 304°
2026-04-11 10:38 44.80741 1.83547 27973 ft 473 kts 304°
2026-04-11 10:38 44.84778 1.76244 27966 ft 473 kts 304°
2026-04-11 10:39 44.86807 1.72566 27945 ft 473 kts 304°
2026-04-11 10:39 44.88799 1.68950 27965 ft 473 kts 304°
2026-04-11 10:39 44.90819 1.65280 27949 ft 473 kts 304°
2026-04-11 10:39 44.92835 1.61613 27947 ft 473 kts 304°
2026-04-11 10:40 44.94851 1.57940 27975 ft 472 kts 304°
2026-04-11 10:40 44.96870 1.54256 27951 ft 473 kts 304°
2026-04-11 10:40 44.98889 1.50569 27975 ft 473 kts 304°
2026-04-11 10:40 45.00874 1.46938 28005 ft 473 kts 303°
2026-04-11 10:41 45.02887 1.43253 27997 ft 473 kts 303°
2026-04-11 10:41 45.04894 1.39571 27990 ft 472 kts 303°
2026-04-11 10:41 45.06896 1.35895 27994 ft 472 kts 303°
2026-04-11 10:41 45.08903 1.32205 27992 ft 471 kts 303°
2026-04-11 10:42 45.10880 1.28564 27985 ft 471 kts 303°
2026-04-11 10:42 45.12878 1.24882 27985 ft 471 kts 303°
2026-04-11 10:42 45.14885 1.21180 27980 ft 471 kts 303°
2026-04-11 10:42 45.16872 1.17487 28016 ft 472 kts 303°
2026-04-11 10:43 45.20739 1.09968 28510 ft 476 kts 301°
2026-04-11 10:43 45.22680 1.06127 28762 ft 478 kts 301°
2026-04-11 10:43 45.24621 1.02280 29022 ft 480 kts 301°
2026-04-11 10:44 45.26578 0.98409 29274 ft 482 kts 301°
2026-04-11 10:44 45.28517 0.94579 29460 ft 485 kts 301°
2026-04-11 10:44 45.30497 0.90671 29677 ft 487 kts 301°
2026-04-11 10:44 45.32482 0.86754 29870 ft 488 kts 301°
2026-04-11 10:45 45.34453 0.82863 29948 ft 491 kts 301°
2026-04-11 10:45 45.38432 0.74998 30012 ft 487 kts 301°
2026-04-11 10:46 45.42372 0.67183 29982 ft 486 kts 301°
2026-04-11 10:46 45.46290 0.59386 30001 ft 485 kts 301°
2026-04-11 10:47 45.50239 0.51501 29983 ft 486 kts 301°
2026-04-11 10:47 45.54148 0.43681 29989 ft 486 kts 301°
2026-04-11 10:48 45.58063 0.35825 30033 ft 486 kts 300°
2026-04-11 10:48 45.61971 0.27890 30014 ft 490 kts 300°
2026-04-11 10:49 45.65928 0.19942 30009 ft 492 kts 300°
2026-04-11 10:49 45.69903 0.11929 30003 ft 494 kts 300°
2026-04-11 10:50 45.73854 0.03917 30001 ft 494 kts 300°
2026-04-11 10:50 45.77827 -0.04013 30003 ft 484 kts 300°
2026-04-11 10:50 45.79892 -0.07827 29972 ft 473 kts 300°
2026-04-11 10:51 45.81867 -0.11564 30009 ft 468 kts 297°
2026-04-11 10:51 45.85227 -0.19537 30006 ft 475 kts 294°
2026-04-11 10:52 45.88969 -0.27483 29991 ft 482 kts 298°
2026-04-11 10:52 45.92914 -0.35257 29980 ft 479 kts 298°
2026-04-11 10:53 45.96748 -0.42990 29983 ft 476 kts 297°
2026-04-11 10:53 46.00535 -0.50810 29982 ft 475 kts 297°
2026-04-11 10:54 46.04277 -0.58595 29981 ft 475 kts 297°
2026-04-11 10:54 46.08047 -0.66448 29973 ft 477 kts 297°
2026-04-11 10:55 46.11830 -0.74342 29979 ft 478 kts 297°
2026-04-11 10:55 46.15615 -0.82259 29988 ft 479 kts 296°
2026-04-11 10:56 46.19399 -0.90134 29967 ft 484 kts 298°
2026-04-11 10:56 46.24000 -0.97438 29988 ft 498 kts 310°
2026-04-11 10:57 46.29426 -1.03812 29988 ft 504 kts 313°
2026-04-11 10:57 46.34912 -1.10066 29987 ft 504 kts 313°
2026-04-11 10:58 46.40425 -1.16422 29993 ft 505 kts 313°
2026-04-11 10:58 46.45887 -1.22791 29991 ft 507 kts 312°
2026-04-11 10:59 46.51389 -1.29244 29971 ft 508 kts 312°
2026-04-11 10:59 46.56902 -1.35726 30033 ft 510 kts 312°
2026-04-11 11:00 46.62399 -1.42204 29976 ft 513 kts 312°
2026-04-11 11:00 46.67954 -1.48763 29963 ft 513 kts 312°
2026-04-11 11:01 46.73501 -1.55327 29968 ft 512 kts 312°
2026-04-11 11:01 46.78997 -1.61851 29968 ft 510 kts 312°
2026-04-11 11:02 46.83577 -1.67303 29993 ft 509 kts 312°
2026-04-11 11:02 46.89063 -1.73852 29988 ft 508 kts 312°
2026-04-11 11:03 46.94539 -1.80406 30007 ft 507 kts 311°
2026-04-11 11:03 46.99982 -1.86939 30000 ft 508 kts 311°
2026-04-11 11:04 47.05467 -1.93541 30009 ft 508 kts 311°
2026-04-11 11:04 47.10894 -2.00091 29998 ft 509 kts 311°
2026-04-11 11:05 47.16373 -2.06719 30059 ft 509 kts 311°
2026-04-11 11:05 47.21862 -2.13378 29984 ft 511 kts 311°
2026-04-11 11:06 47.27308 -2.20003 29997 ft 510 kts 310°
2026-04-11 11:06 47.32777 -2.26674 29991 ft 509 kts 310°
2026-04-11 11:07 47.38241 -2.33357 30017 ft 508 kts 310°
2026-04-11 11:07 47.43651 -2.39993 29996 ft 507 kts 310°
2026-04-11 11:08 47.49043 -2.46626 29984 ft 506 kts 310°
2026-04-11 11:08 47.54463 -2.53312 30004 ft 505 kts 309°
2026-04-11 11:09 47.59868 -2.59999 29959 ft 505 kts 309°
2026-04-11 11:09 47.65225 -2.66645 29969 ft 504 kts 309°
2026-04-11 11:10 47.70575 -2.73302 29976 ft 504 kts 309°
2026-04-11 11:10 47.75962 -2.80023 29968 ft 504 kts 309°
2026-04-11 11:11 47.81312 -2.86716 29975 ft 506 kts 308°
2026-04-11 11:11 47.86707 -2.93484 29960 ft 506 kts 308°
2026-04-11 11:12 47.92108 -3.00276 29971 ft 507 kts 308°
2026-04-11 11:12 47.97467 -3.07036 30018 ft 506 kts 307°
2026-04-11 11:13 48.02853 -3.13847 29954 ft 506 kts 307°
2026-04-11 11:13 48.08209 -3.20640 29952 ft 505 kts 307°
2026-04-11 11:14 48.13525 -3.27405 29980 ft 504 kts 307°
2026-04-11 11:14 48.18870 -3.34222 29999 ft 504 kts 306°
2026-04-11 11:15 48.24219 -3.41072 29973 ft 505 kts 306°
2026-04-11 11:15 48.29577 -3.47881 29994 ft 511 kts 307°
2026-04-11 11:16 48.34927 -3.54890 29986 ft 506 kts 304°
2026-04-11 11:16 48.40289 -3.61967 30007 ft 517 kts 306°
2026-04-11 11:17 48.45787 -3.68960 29980 ft 522 kts 306°
2026-04-11 11:17 48.51330 -3.76069 29964 ft 523 kts 306°
2026-04-11 11:18 48.56849 -3.83231 29969 ft 521 kts 306°
2026-04-11 11:18 48.62310 -3.90365 29973 ft 520 kts 305°
2026-04-11 11:19 48.67777 -3.97531 29969 ft 519 kts 305°
2026-04-11 11:19 48.73220 -4.04678 29962 ft 515 kts 305°
2026-04-11 11:20 48.78600 -4.11767 29957 ft 512 kts 305°
2026-04-11 11:20 48.83976 -4.18875 29950 ft 511 kts 305°
2026-04-11 11:21 48.89304 -4.25943 29949 ft 512 kts 305°
2026-04-11 11:21 48.94682 -4.33097 29946 ft 513 kts 305°
2026-04-11 11:22 49.00076 -4.40290 30013 ft 515 kts 305°
2026-04-11 11:22 49.02694 -4.43884 30050 ft 504 kts 302°
2026-04-11 11:22 49.05264 -4.47595 30005 ft 510 kts 305°
2026-04-11 11:23 49.10653 -4.54672 29944 ft 514 kts 307°
2026-04-11 11:23 49.16079 -4.61761 29938 ft 512 kts 306°
2026-04-11 11:24 49.21436 -4.68944 30007 ft 510 kts 306°
2026-04-11 11:24 49.24071 -4.72575 29880 ft 510 kts 306°
2026-04-11 11:24 49.26894 -4.75845 29936 ft 514 kts 314°
2026-04-11 11:24 49.29615 -4.79202 29880 ft 489 kts 298°
2026-04-11 11:25 49.31733 -4.83168 29907 ft 485 kts 298°
2026-04-11 11:25 49.34120 -4.86967 29937 ft 502 kts 304°
2026-04-11 11:25 49.36760 -4.90635 29881 ft 513 kts 307°
2026-04-11 11:26 49.42266 -4.97736 29960 ft 516 kts 308°
2026-04-11 11:26 49.47727 -5.04792 29903 ft 514 kts 308°
2026-04-11 11:27 49.53111 -5.11995 29879 ft 509 kts 307°
2026-04-11 11:27 49.58359 -5.19192 29878 ft 506 kts 306°
2026-04-11 11:28 49.63631 -5.26444 29936 ft 505 kts 307°
2026-04-11 11:28 49.68849 -5.33617 29872 ft 505 kts 307°
2026-04-11 11:29 49.76693 -5.44406 29897 ft 504 kts 309°
2026-04-11 11:29 49.82000 -5.51490 29823 ft 499 kts 307°
2026-04-11 11:30 49.87113 -5.58719 29879 ft 497 kts 308°
2026-04-11 11:30 49.92219 -5.65922 29815 ft 498 kts 308°
2026-04-11 11:31 49.97371 -5.73129 29810 ft 497 kts 308°
2026-04-11 11:31 50.02499 -5.80292 29805 ft 497 kts 308°
2026-04-11 11:32 50.07658 -5.87523 29827 ft 498 kts 308°
2026-04-11 11:32 50.12779 -5.94726 29806 ft 498 kts 308°
2026-04-11 11:33 50.18017 -6.01864 29791 ft 496 kts 309°
2026-04-11 11:33 50.23013 -6.09119 29800 ft 491 kts 308°
2026-04-11 11:34 50.28045 -6.16365 29808 ft 491 kts 309°
2026-04-11 11:34 50.33107 -6.23568 29793 ft 491 kts 309°
2026-04-11 11:35 50.38136 -6.30728 29769 ft 490 kts 309°
2026-04-11 11:35 50.43168 -6.37928 29762 ft 490 kts 309°
2026-04-11 11:36 50.48222 -6.45190 29811 ft 491 kts 309°
2026-04-11 11:36 50.53248 -6.52437 29787 ft 492 kts 310°
2026-04-11 11:37 50.58257 -6.59674 29750 ft 490 kts 310°
2026-04-11 11:37 50.63268 -6.66937 29732 ft 487 kts 309°
2026-04-11 11:38 50.68224 -6.74142 29729 ft 485 kts 309°
2026-04-11 11:38 50.73192 -6.81392 29731 ft 485 kts 309°
2026-04-11 11:39 50.78117 -6.88600 29716 ft 484 kts 309°
2026-04-11 11:39 50.83071 -6.95870 29710 ft 485 kts 309°
2026-04-11 11:40 50.87990 -7.03112 29695 ft 485 kts 309°
2026-04-11 11:40 50.92945 -7.10430 29712 ft 486 kts 310°
2026-04-11 11:41 50.97875 -7.17728 29691 ft 485 kts 310°
2026-04-11 11:41 51.02775 -7.25005 29675 ft 483 kts 310°
2026-04-11 11:42 51.07680 -7.32314 29679 ft 482 kts 310°
2026-04-11 11:42 51.12576 -7.39634 29684 ft 482 kts 310°
2026-04-11 11:43 51.17463 -7.46962 29670 ft 481 kts 310°
2026-04-11 11:43 51.22319 -7.54262 29655 ft 482 kts 310°
2026-04-11 11:44 51.27345 -7.61364 29651 ft 485 kts 313°
2026-04-11 11:44 51.32584 -7.68242 29684 ft 486 kts 314°
2026-04-11 11:45 51.37801 -7.75079 29635 ft 486 kts 314°
2026-04-11 11:45 51.43021 -7.81988 29624 ft 485 kts 314°
2026-04-11 11:46 51.48170 -7.88855 29609 ft 484 kts 314°
2026-04-11 11:46 51.53343 -7.95784 29598 ft 483 kts 314°
2026-04-11 11:47 51.58491 -8.02701 29596 ft 484 kts 314°
2026-04-11 11:47 51.63673 -8.09680 29576 ft 484 kts 314°
2026-04-11 11:48 51.68816 -8.16627 29563 ft 484 kts 314°
2026-04-11 11:48 51.73994 -8.23643 29545 ft 485 kts 314°
2026-04-11 11:49 51.79136 -8.30633 29545 ft 485 kts 314°
2026-04-11 11:49 51.83426 -8.36478 29536 ft 483 kts 314°
2026-04-11 11:50 51.88557 -8.43491 29525 ft 482 kts 314°
2026-04-11 11:50 51.93687 -8.50526 29521 ft 481 kts 314°
2026-04-11 11:51 51.98771 -8.57518 29547 ft 480 kts 314°
2026-04-11 11:51 52.03871 -8.64554 29504 ft 480 kts 314°
2026-04-11 11:52 52.08928 -8.71555 29495 ft 480 kts 314°
2026-04-11 11:52 52.14024 -8.78630 29496 ft 480 kts 314°
2026-04-11 11:53 52.19096 -8.85694 29489 ft 481 kts 314°
2026-04-11 11:53 52.24210 -8.92839 29489 ft 482 kts 314°
2026-04-11 11:54 52.29269 -8.99925 29468 ft 481 kts 314°
2026-04-11 11:54 52.34325 -9.07031 29457 ft 479 kts 314°
2026-04-11 11:55 52.39390 -9.14174 29454 ft 478 kts 314°
2026-04-11 11:55 52.44392 -9.21250 29429 ft 477 kts 314°
2026-04-11 11:56 52.49464 -9.28316 29441 ft 477 kts 315°
2026-04-11 11:56 52.54437 -9.35463 29417 ft 475 kts 313°
2026-04-11 11:57 52.59383 -9.42627 29412 ft 476 kts 314°
2026-04-11 11:57 52.64434 -9.49769 29414 ft 477 kts 315°
2026-04-11 11:58 52.69429 -9.56922 29395 ft 478 kts 313°
2026-04-11 11:58 52.74453 -9.64106 29372 ft 474 kts 314°
2026-04-11 11:59 52.79358 -9.71379 29350 ft 472 kts 314°
2026-04-11 11:59 52.84142 -9.78712 29369 ft 469 kts 311°
2026-04-11 12:00 52.88781 -9.86331 29344 ft 469 kts 310°
2026-04-11 12:00 52.93414 -9.93889 29344 ft 469 kts 311°
2026-04-11 12:01 52.98024 -10.01579 29306 ft 470 kts 311°
2026-04-11 12:01 53.02669 -10.09276 29307 ft 471 kts 310°
2026-04-11 12:02 53.07306 -10.16912 29308 ft 471 kts 309°
2026-04-11 12:02 53.11860 -10.24680 29294 ft 470 kts 311°
2026-04-11 12:03 53.16522 -10.32349 29277 ft 469 kts 313°
2026-04-11 12:03 53.21175 -10.39904 29281 ft 466 kts 310°
2026-04-11 12:04 53.25728 -10.47553 29254 ft 466 kts 310°
2026-04-11 12:04 53.30316 -10.55207 29269 ft 464 kts 310°
2026-04-11 12:05 53.34909 -10.62676 29280 ft 461 kts 311°
2026-04-11 12:05 53.39474 -10.70440 29247 ft 469 kts 310°
2026-04-11 12:06 53.43976 -10.78255 29177 ft 465 kts 309°
2026-04-11 12:06 53.48444 -10.86029 29209 ft 461 kts 311°
2026-04-11 12:07 53.53050 -10.93472 29230 ft 464 kts 310°
2026-04-11 12:07 53.57603 -11.01356 29183 ft 472 kts 310°
2026-04-11 12:08 53.62181 -11.09225 29157 ft 468 kts 311°
2026-04-11 12:08 53.66732 -11.16988 29168 ft 461 kts 309°
2026-04-11 12:09 53.71199 -11.24682 29187 ft 464 kts 310°
2026-04-11 12:09 53.75688 -11.32626 29186 ft 468 kts 310°
2026-04-11 12:10 53.80198 -11.40578 29152 ft 473 kts 309°
2026-04-11 12:10 53.84790 -11.48453 29132 ft 463 kts 312°
2026-04-11 12:11 53.89323 -11.56125 29094 ft 462 kts 310°
2026-04-11 12:11 53.93778 -11.64038 29141 ft 464 kts 307°
2026-04-11 12:12 53.98180 -11.72100 29108 ft 470 kts 309°
2026-04-11 12:12 54.02774 -11.80043 29095 ft 466 kts 310°
2026-04-11 12:13 54.07231 -11.87877 29082 ft 461 kts 308°
2026-04-11 12:13 54.11519 -11.95978 29094 ft 461 kts 308°
2026-04-11 12:14 54.15981 -12.03912 29109 ft 466 kts 310°
2026-04-11 12:14 54.20586 -12.11744 29075 ft 470 kts 310°
2026-04-11 12:15 54.25150 -12.19800 29033 ft 467 kts 308°
2026-04-11 12:15 54.29479 -12.27890 29041 ft 460 kts 308°
2026-04-11 12:16 54.33970 -12.35870 29035 ft 466 kts 310°
2026-04-11 12:16 54.38407 -12.43994 29052 ft 470 kts 309°
2026-04-11 12:17 54.42830 -12.52200 29102 ft 469 kts 306°
2026-04-11 12:17 54.44887 -12.56545 29381 ft 466 kts 304°
2026-04-11 12:17 54.46863 -12.60953 29708 ft 463 kts 303°
2026-04-11 12:18 54.48785 -12.65336 30027 ft 461 kts 303°
2026-04-11 12:18 54.50724 -12.69754 30267 ft 461 kts 303°
2026-04-11 12:18 54.54634 -12.78571 30544 ft 465 kts 303°
2026-04-11 12:19 54.56580 -12.82982 30673 ft 467 kts 304°
2026-04-11 12:19 54.58562 -12.87400 30950 ft 465 kts 304°
2026-04-11 12:19 54.60562 -12.91835 30959 ft 468 kts 304°
2026-04-11 12:20 54.64549 -13.00691 30996 ft 470 kts 305°
2026-04-11 12:20 54.68546 -13.09646 31002 ft 470 kts 304°
2026-04-11 12:21 54.72502 -13.18533 30997 ft 460 kts 304°
2026-04-11 12:21 54.76416 -13.27256 30977 ft 460 kts 305°
2026-04-11 12:22 54.80300 -13.36117 30995 ft 463 kts 304°
2026-04-11 12:22 54.84184 -13.44938 30971 ft 460 kts 303°
2026-04-11 12:23 54.88046 -13.53782 30959 ft 460 kts 306°
2026-04-11 12:23 54.91909 -13.62760 30972 ft 463 kts 303°
2026-04-11 12:24 54.95783 -13.71654 30976 ft 463 kts 304°
2026-04-11 12:24 54.99682 -13.80674 30967 ft 465 kts 306°
2026-04-11 12:25 55.03604 -13.89627 30970 ft 463 kts 304°
2026-04-11 12:25 55.07416 -13.98512 30958 ft 455 kts 305°
2026-04-11 12:26 55.11249 -14.07449 30954 ft 462 kts 304°
2026-04-11 12:26 55.15005 -14.16352 30940 ft 452 kts 303°
2026-04-11 12:27 55.18756 -14.25188 30937 ft 454 kts 305°
2026-04-11 12:27 55.22570 -14.34017 30935 ft 460 kts 304°
2026-04-11 12:28 55.26286 -14.43201 30921 ft 459 kts 304°
2026-04-11 12:28 55.30136 -14.52106 30955 ft 457 kts 304°
2026-04-11 12:29 55.33827 -14.61138 30931 ft 454 kts 307°
2026-04-11 12:29 55.37640 -14.70023 30955 ft 454 kts 304°
2026-04-11 12:30 55.41366 -14.78907 30947 ft 452 kts 304°
2026-04-11 12:30 55.45089 -14.87957 30965 ft 456 kts 305°
2026-04-11 12:31 55.48690 -14.97043 30948 ft 449 kts 302°
2026-04-11 12:31 55.52235 -15.06029 30939 ft 444 kts 300°
2026-04-11 12:32 55.55313 -15.15455 30961 ft 447 kts 298°
2026-04-11 12:32 55.58374 -15.25119 30944 ft 449 kts 298°
2026-04-11 12:33 55.61462 -15.34684 30959 ft 449 kts 299°
2026-04-11 12:33 55.64564 -15.44190 30963 ft 447 kts 299°
2026-04-11 12:34 55.67675 -15.53722 30957 ft 444 kts 299°
2026-04-11 12:34 55.70742 -15.63159 30956 ft 443 kts 299°
2026-04-11 12:35 55.73809 -15.72637 30974 ft 441 kts 299°
2026-04-11 12:35 55.76842 -15.82050 30973 ft 441 kts 299°
2026-04-11 12:36 55.79888 -15.91536 30975 ft 441 kts 299°
2026-04-11 12:36 55.82917 -16.01012 30998 ft 442 kts 300°
2026-04-11 12:37 55.85960 -16.10565 31003 ft 443 kts 300°
2026-04-11 12:37 55.88988 -16.20108 30996 ft 445 kts 300°
2026-04-11 12:38 55.91519 -16.28118 31019 ft 445 kts 300°
2026-04-11 12:38 55.94565 -16.37800 31021 ft 446 kts 300°
2026-04-11 12:39 55.97586 -16.47447 31021 ft 446 kts 300°
2026-04-11 12:39 56.00595 -16.57090 31046 ft 446 kts 300°
2026-04-11 12:40 56.03613 -16.66795 31043 ft 446 kts 300°
2026-04-11 12:40 56.06653 -16.76449 31038 ft 441 kts 301°
2026-04-11 12:41 56.09597 -16.86038 31062 ft 439 kts 300°
2026-04-11 12:41 56.12494 -16.95630 31071 ft 438 kts 300°
2026-04-11 12:42 56.15418 -17.05179 31072 ft 438 kts 300°
2026-04-11 12:42 56.18354 -17.14783 31096 ft 438 kts 300°
2026-04-11 12:43 56.22726 -17.29184 31100 ft 440 kts 300°
2026-04-11 12:43 56.25657 -17.38897 31098 ft 442 kts 300°
2026-04-11 12:44 56.28592 -17.48668 31100 ft 443 kts 301°
2026-04-11 12:44 56.31499 -17.58390 31108 ft 444 kts 300°
2026-04-11 12:45 56.34424 -17.68210 31121 ft 444 kts 300°
2026-04-11 12:45 56.37339 -17.78035 31129 ft 444 kts 300°
2026-04-11 12:46 56.40229 -17.87818 31120 ft 444 kts 301°
2026-04-11 12:46 56.43127 -17.97667 31125 ft 444 kts 300°
2026-04-11 12:47 56.46024 -18.07555 31145 ft 444 kts 300°
2026-04-11 12:47 56.48911 -18.17454 31148 ft 445 kts 300°
2026-04-11 12:48 56.51795 -18.27382 31153 ft 446 kts 300°
2026-04-11 12:48 56.54666 -18.37305 31172 ft 447 kts 300°
2026-04-11 12:49 56.57598 -18.47382 31186 ft 454 kts 299°
2026-04-11 12:49 56.60549 -18.57488 31187 ft 453 kts 300°
2026-04-11 12:50 56.63434 -18.67495 31205 ft 443 kts 299°
2026-04-11 12:50 56.66226 -18.77517 31201 ft 449 kts 299°
2026-04-11 12:51 56.69170 -18.87695 31193 ft 458 kts 299°
2026-04-11 12:51 56.72009 -18.98067 31179 ft 458 kts 298°
2026-04-11 12:52 56.74842 -19.08290 31191 ft 444 kts 300°
2026-04-11 12:52 56.77631 -19.18142 31234 ft 438 kts 301°
2026-04-11 12:53 56.80412 -19.28180 31283 ft 447 kts 301°
2026-04-11 12:53 56.83313 -19.38163 31274 ft 446 kts 300°
2026-04-11 12:54 56.86068 -19.48401 31248 ft 450 kts 298°
2026-04-11 12:54 56.88831 -19.58681 31238 ft 457 kts 297°
2026-04-11 12:55 56.90177 -19.63995 31340 ft 459 kts 298°
2026-04-11 12:55 56.91588 -19.69253 31352 ft 455 kts 299°
2026-04-11 12:55 56.94421 -19.79314 31277 ft 435 kts 300°
2026-04-11 12:56 56.97077 -19.89150 31320 ft 434 kts 299°
2026-04-11 12:56 56.99809 -19.99189 31313 ft 443 kts 302°
2026-04-11 12:57 57.03167 -20.08734 31328 ft 443 kts 307°
2026-04-11 12:57 57.06720 -20.17937 31328 ft 444 kts 306°
2026-04-11 12:58 57.10107 -20.27243 31367 ft 435 kts 307°
2026-04-11 12:58 57.13463 -20.36557 31327 ft 441 kts 304°
2026-04-11 12:59 57.16705 -20.46147 31418 ft 435 kts 307°
2026-04-11 12:59 57.20263 -20.55055 31386 ft 429 kts 308°
2026-04-11 13:00 57.23527 -20.64290 31354 ft 433 kts 303°
2026-04-11 13:00 57.26796 -20.73826 31325 ft 442 kts 305°
2026-04-11 13:01 57.31918 -20.88088 31401 ft 440 kts 304°
2026-04-11 13:02 57.35180 -20.97559 31423 ft 441 kts 305°
2026-04-11 13:02 57.38577 -21.07168 31451 ft 451 kts 305°
2026-04-11 13:03 57.42030 -21.16929 31439 ft 446 kts 304°
2026-04-11 13:03 57.45297 -21.26615 31439 ft 437 kts 306°
2026-04-11 13:04 57.48666 -21.35859 31458 ft 430 kts 306°
2026-04-11 13:04 57.52013 -21.45201 31478 ft 438 kts 307°
2026-04-11 13:05 57.55348 -21.54663 31460 ft 442 kts 305°
2026-04-11 13:05 57.58591 -21.64351 31462 ft 434 kts 306°
2026-04-11 13:06 57.61806 -21.73839 31477 ft 435 kts 303°
2026-04-11 13:06 57.65077 -21.83494 31487 ft 444 kts 305°
2026-04-11 13:07 57.68430 -21.93087 31454 ft 438 kts 303°
2026-04-11 13:07 57.71579 -22.02930 31531 ft 444 kts 304°
2026-04-11 13:08 57.74940 -22.12714 31541 ft 451 kts 305°
2026-04-11 13:08 57.78310 -22.22740 31552 ft 461 kts 303°
2026-04-11 13:09 57.81742 -22.32978 31545 ft 456 kts 304°
2026-04-11 13:09 57.83426 -22.37925 31477 ft 443 kts 304°
2026-04-11 13:09 57.85051 -22.42722 31499 ft 434 kts 305°
2026-04-11 13:10 57.88289 -22.52422 31512 ft 441 kts 302°
2026-04-11 13:10 57.91502 -22.62341 31554 ft 452 kts 303°
2026-04-11 13:11 57.94836 -22.72307 31566 ft 445 kts 303°
2026-04-11 13:11 57.98097 -22.82187 31581 ft 443 kts 303°
2026-04-11 13:12 58.01331 -22.92070 31585 ft 449 kts 304°
2026-04-11 13:12 58.04634 -23.02126 31587 ft 449 kts 303°
2026-04-11 13:13 58.07925 -23.12168 31585 ft 456 kts 302°
2026-04-11 13:13 58.11159 -23.22457 31612 ft 453 kts 302°
2026-04-11 13:14 58.14361 -23.32712 31629 ft 449 kts 302°
2026-04-11 13:14 58.17606 -23.42984 31649 ft 459 kts 302°
2026-04-11 13:15 58.20905 -23.53261 31615 ft 457 kts 302°
2026-04-11 13:15 58.24190 -23.63539 31641 ft 457 kts 302°
2026-04-11 13:16 58.27485 -23.73923 31659 ft 458 kts 301°
2026-04-11 13:16 58.30777 -23.84213 31648 ft 451 kts 302°
2026-04-11 13:17 58.34006 -23.94302 31646 ft 447 kts 301°
2026-04-11 13:17 58.37214 -24.04608 31666 ft 457 kts 301°
2026-04-11 13:18 58.40419 -24.15006 31669 ft 453 kts 301°
2026-04-11 13:18 58.43576 -24.25472 31692 ft 456 kts 301°
2026-04-11 13:19 58.46696 -24.35911 31695 ft 449 kts 301°
2026-04-11 13:19 58.49829 -24.46134 31700 ft 445 kts 301°
2026-04-11 13:20 58.52955 -24.56320 31701 ft 444 kts 301°
2026-04-11 13:20 58.56070 -24.66547 31697 ft 449 kts 301°
2026-04-11 13:21 58.59248 -24.77047 31705 ft 457 kts 302°
2026-04-11 13:21 58.62445 -24.87632 31722 ft 461 kts 299°
2026-04-11 13:22 58.65574 -24.98321 31733 ft 459 kts 302°
2026-04-11 13:22 58.68796 -25.08758 31699 ft 453 kts 301°
2026-04-11 13:23 58.71943 -25.19255 31699 ft 454 kts 301°
2026-04-11 13:23 58.75088 -25.29891 31748 ft 464 kts 299°
2026-04-11 13:24 58.78216 -25.40778 31726 ft 467 kts 299°
2026-04-11 13:24 58.81361 -25.51654 31725 ft 459 kts 300°
2026-04-11 13:25 58.84473 -25.62371 31750 ft 458 kts 300°
2026-04-11 13:25 58.87578 -25.73083 31758 ft 459 kts 299°
2026-04-11 13:26 58.90700 -25.83906 31757 ft 460 kts 299°
2026-04-11 13:26 58.93293 -25.92937 31752 ft 461 kts 299°
2026-04-11 13:27 58.96389 -26.03771 31765 ft 461 kts 299°
2026-04-11 13:27 58.99492 -26.14679 31757 ft 460 kts 299°
2026-04-11 13:28 59.02567 -26.25541 31763 ft 459 kts 299°
2026-04-11 13:28 59.05621 -26.36380 31762 ft 459 kts 299°
2026-04-11 13:29 59.08671 -26.47256 31752 ft 458 kts 298°
2026-04-11 13:29 59.11705 -26.58128 31763 ft 457 kts 298°
2026-04-11 13:30 59.14716 -26.68969 31771 ft 456 kts 298°
2026-04-11 13:30 59.17731 -26.79874 31772 ft 456 kts 298°
2026-04-11 13:31 59.20722 -26.90743 31773 ft 456 kts 298°
2026-04-11 13:31 59.23706 -27.01642 31776 ft 456 kts 298°
2026-04-11 13:32 59.26699 -27.12626 31782 ft 457 kts 298°
2026-04-11 13:32 59.29687 -27.23645 31776 ft 457 kts 298°
2026-04-11 13:33 59.32654 -27.34641 31782 ft 458 kts 298°
2026-04-11 13:33 59.35613 -27.45659 31786 ft 458 kts 297°
2026-04-11 13:34 59.38567 -27.56713 31790 ft 459 kts 297°
2026-04-11 13:34 59.41515 -27.67801 31788 ft 459 kts 297°
2026-04-11 13:35 59.44456 -27.78915 31790 ft 459 kts 297°
2026-04-11 13:35 59.47391 -27.90061 31791 ft 459 kts 297°
2026-04-11 13:36 59.50314 -28.01219 31804 ft 459 kts 297°
2026-04-11 13:36 59.53232 -28.12410 31794 ft 459 kts 297°
2026-04-11 13:37 59.56132 -28.23593 31798 ft 460 kts 297°
2026-04-11 13:37 59.59029 -28.34817 31803 ft 460 kts 296°
2026-04-11 13:38 59.61935 -28.46136 31804 ft 460 kts 296°
2026-04-11 13:38 59.64822 -28.57436 31794 ft 460 kts 296°
2026-04-11 13:39 59.67689 -28.68715 31809 ft 458 kts 296°
2026-04-11 13:39 59.70528 -28.79941 31805 ft 457 kts 296°
2026-04-11 13:40 59.73378 -28.91268 31803 ft 456 kts 296°
2026-04-11 13:40 59.76191 -29.02504 31815 ft 456 kts 296°
2026-04-11 13:41 59.78995 -29.13764 31813 ft 456 kts 296°
2026-04-11 13:41 59.81791 -29.25047 31814 ft 456 kts 296°
2026-04-11 13:42 59.84576 -29.36348 31822 ft 457 kts 296°
2026-04-11 13:42 59.87367 -29.47728 31820 ft 458 kts 295°
2026-04-11 13:43 59.90153 -29.59149 31821 ft 459 kts 295°
2026-04-11 13:43 59.92930 -29.70592 31811 ft 458 kts 295°
2026-04-11 13:44 59.95711 -29.82110 31817 ft 457 kts 295°
2026-04-11 13:44 59.98439 -29.93462 31812 ft 456 kts 295°
2026-04-11 13:45 60.01195 -30.04897 31824 ft 455 kts 296°
2026-04-11 13:45 60.04020 -30.16166 31822 ft 455 kts 296°
2026-04-11 13:46 60.06868 -30.27483 31822 ft 455 kts 296°
2026-04-11 13:46 60.09713 -30.38893 31826 ft 456 kts 296°
2026-04-11 13:47 60.12526 -30.50277 31820 ft 456 kts 296°
2026-04-11 13:47 60.15314 -30.61630 31819 ft 457 kts 296°
2026-04-11 13:48 60.18131 -30.73163 31816 ft 457 kts 295°
2026-04-11 13:48 60.20920 -30.84637 31819 ft 457 kts 295°
2026-04-11 13:49 60.23693 -30.96107 31815 ft 456 kts 295°
2026-04-11 13:49 60.26447 -31.07559 31817 ft 454 kts 295°
2026-04-11 13:50 60.29179 -31.18977 31819 ft 453 kts 295°
2026-04-11 13:50 60.31898 -31.30401 31818 ft 452 kts 295°
2026-04-11 13:51 60.34617 -31.41887 31807 ft 453 kts 295°
2026-04-11 13:51 60.37324 -31.53387 31811 ft 455 kts 295°
2026-04-11 13:52 60.40022 -31.64903 31815 ft 456 kts 295°
2026-04-11 13:52 60.42731 -31.76532 31830 ft 458 kts 295°
2026-04-11 13:53 60.45447 -31.88253 31813 ft 459 kts 295°
2026-04-11 13:53 60.48144 -31.99958 31787 ft 459 kts 294°
2026-04-11 13:54 60.50832 -32.11687 31801 ft 458 kts 295°
2026-04-11 13:54 60.53502 -32.23402 31801 ft 456 kts 294°
2026-04-11 13:55 60.56137 -32.35023 31817 ft 455 kts 294°
2026-04-11 13:55 60.58785 -32.46770 31822 ft 454 kts 294°
2026-04-11 13:56 60.61398 -32.58426 31813 ft 453 kts 294°
2026-04-11 13:56 60.64009 -32.70137 31810 ft 454 kts 294°
2026-04-11 13:57 60.66605 -32.81845 31817 ft 454 kts 294°
2026-04-11 13:57 60.69193 -32.93582 31815 ft 454 kts 294°
2026-04-11 13:58 60.71777 -33.05366 31811 ft 455 kts 294°
2026-04-11 13:58 60.74338 -33.17107 31814 ft 455 kts 294°
2026-04-11 13:59 60.76902 -33.28937 31813 ft 454 kts 294°
2026-04-11 13:59 60.79458 -33.40792 31821 ft 453 kts 294°
2026-04-11 14:00 60.81989 -33.52599 31811 ft 453 kts 294°
2026-04-11 14:00 60.85769 -33.70353 31822 ft 452 kts 293°
2026-04-11 14:01 60.88270 -33.82191 31815 ft 453 kts 293°
2026-04-11 14:01 60.90762 -33.94047 31820 ft 453 kts 293°
2026-04-11 14:02 60.93242 -34.05920 31823 ft 453 kts 293°
2026-04-11 14:02 60.95730 -34.17898 31811 ft 454 kts 293°
2026-04-11 14:03 60.98201 -34.29862 31823 ft 456 kts 293°
2026-04-11 14:03 61.00671 -34.41893 31842 ft 457 kts 293°
2026-04-11 14:04 61.03130 -34.53939 31821 ft 456 kts 293°
2026-04-11 14:04 61.05573 -34.65984 31823 ft 455 kts 292°
2026-04-11 14:05 61.08008 -34.78055 31835 ft 453 kts 292°
2026-04-11 14:05 61.10409 -34.90033 31834 ft 452 kts 292°
2026-04-11 14:06 61.12803 -35.02043 31841 ft 452 kts 292°
2026-04-11 14:06 61.15187 -35.14077 31845 ft 453 kts 292°
2026-04-11 14:07 61.17565 -35.26155 31853 ft 454 kts 292°
2026-04-11 14:07 61.19937 -35.38272 31844 ft 455 kts 292°
2026-04-11 14:08 61.22317 -35.50502 31855 ft 455 kts 292°
2026-04-11 14:08 61.24675 -35.62697 31854 ft 456 kts 292°
2026-04-11 14:09 61.27025 -35.74928 31854 ft 456 kts 292°
2026-04-11 14:09 61.29355 -35.87131 31854 ft 455 kts 292°
2026-04-11 14:10 61.31672 -35.99339 31864 ft 454 kts 292°
2026-04-11 14:10 61.33975 -36.11547 31867 ft 453 kts 292°
2026-04-11 14:11 61.36265 -36.23760 31877 ft 452 kts 291°
2026-04-11 14:11 61.38550 -36.36029 31885 ft 452 kts 292°
2026-04-11 14:12 61.40811 -36.48243 31882 ft 453 kts 291°
2026-04-11 14:12 61.43070 -36.60524 31887 ft 454 kts 291°
2026-04-11 14:13 61.45319 -36.72828 31883 ft 454 kts 291°
2026-04-11 14:13 61.47561 -36.85173 31893 ft 455 kts 291°
2026-04-11 14:14 61.49799 -36.97575 31892 ft 455 kts 291°
2026-04-11 14:14 61.51657 -37.07935 31887 ft 455 kts 291°
2026-04-11 14:15 61.53877 -37.20383 31897 ft 455 kts 291°
2026-04-11 14:15 61.56079 -37.32813 31904 ft 455 kts 291°
2026-04-11 14:16 61.58269 -37.45255 31904 ft 455 kts 291°
2026-04-11 14:16 61.60453 -37.57748 31904 ft 455 kts 291°
2026-04-11 14:17 61.62619 -37.70221 31906 ft 455 kts 291°
2026-04-11 14:17 61.64775 -37.82719 31918 ft 455 kts 291°
2026-04-11 14:18 61.66922 -37.95243 31913 ft 456 kts 291°
2026-04-11 14:18 61.69069 -38.07860 31912 ft 456 kts 290°
2026-04-11 14:19 61.71195 -38.20431 31915 ft 456 kts 290°
2026-04-11 14:19 61.73310 -38.33026 31906 ft 456 kts 290°
2026-04-11 14:20 61.75410 -38.45620 31916 ft 456 kts 290°
2026-04-11 14:20 61.77513 -38.58317 31934 ft 458 kts 290°
2026-04-11 14:21 61.79608 -38.71051 31930 ft 459 kts 290°
2026-04-11 14:21 61.81692 -38.83813 31929 ft 461 kts 290°
2026-04-11 14:22 61.83768 -38.96613 31929 ft 461 kts 289°
2026-04-11 14:22 61.85844 -39.09506 31929 ft 461 kts 289°
2026-04-11 14:23 61.87901 -39.22371 31935 ft 461 kts 289°
2026-04-11 14:23 61.89937 -39.35200 31934 ft 460 kts 289°
2026-04-11 14:24 61.91965 -39.48070 31935 ft 460 kts 289°
2026-04-11 14:24 61.93976 -39.60923 31935 ft 460 kts 289°
2026-04-11 14:25 61.95987 -39.73873 31939 ft 460 kts 289°
2026-04-11 14:25 61.97979 -39.86791 31938 ft 460 kts 289°
2026-04-11 14:26 61.99956 -39.99693 31945 ft 460 kts 289°
2026-04-11 14:26 62.01830 -40.12727 32219 ft 463 kts 287°
2026-04-11 14:27 62.02732 -40.19306 32474 ft 462 kts 287°
2026-04-11 14:27 62.03630 -40.25910 32737 ft 462 kts 287°
2026-04-11 14:27 62.04527 -40.32519 32956 ft 462 kts 287°
2026-04-11 14:27 62.05414 -40.39041 33138 ft 463 kts 287°
2026-04-11 14:28 62.06306 -40.45607 33338 ft 463 kts 287°
2026-04-11 14:28 62.07206 -40.52240 33545 ft 463 kts 287°
2026-04-11 14:28 62.08096 -40.58810 33836 ft 462 kts 287°
2026-04-11 14:28 62.08993 -40.65460 33900 ft 465 kts 287°
2026-04-11 14:29 62.10762 -40.78642 33944 ft 463 kts 286°
2026-04-11 14:29 62.12525 -40.91894 33955 ft 460 kts 286°
2026-04-11 14:30 62.14287 -41.04998 33946 ft 458 kts 288°
2026-04-11 14:30 62.16054 -41.18045 33972 ft 458 kts 285°
2026-04-11 14:31 62.17707 -41.31252 33975 ft 459 kts 285°
2026-04-11 14:31 62.19373 -41.44464 33980 ft 461 kts 285°
2026-04-11 14:32 62.21057 -41.57721 33985 ft 462 kts 285°
2026-04-11 14:32 62.22732 -41.70953 33985 ft 462 kts 285°
2026-04-11 14:33 62.24410 -41.84329 33980 ft 464 kts 285°
2026-04-11 14:33 62.26068 -41.97668 33995 ft 465 kts 285°
2026-04-11 14:34 62.27729 -42.11162 33986 ft 466 kts 285°
2026-04-11 14:34 62.29370 -42.24611 33991 ft 466 kts 285°
2026-04-11 14:35 62.31016 -42.38034 33985 ft 465 kts 284°
2026-04-11 14:35 62.32647 -42.51486 34022 ft 465 kts 285°
2026-04-11 14:36 62.34243 -42.64921 33998 ft 466 kts 284°
2026-04-11 14:36 62.35803 -42.78457 34001 ft 466 kts 284°
2026-04-11 14:37 62.37377 -42.92070 34008 ft 467 kts 284°
2026-04-11 14:37 62.38938 -43.05603 34015 ft 467 kts 284°
2026-04-11 14:38 62.40499 -43.19235 34002 ft 467 kts 283°
2026-04-11 14:38 62.42038 -43.32819 34007 ft 467 kts 283°
2026-04-11 14:39 62.43573 -43.46499 34012 ft 467 kts 283°
2026-04-11 14:39 62.45081 -43.60082 34009 ft 467 kts 283°
2026-04-11 14:40 62.46631 -43.73744 34009 ft 464 kts 284°
2026-04-11 14:40 62.48043 -43.87292 34009 ft 464 kts 282°
2026-04-11 14:41 62.49510 -44.00967 34015 ft 465 kts 283°
2026-04-11 14:41 62.50981 -44.14589 34018 ft 466 kts 283°
2026-04-11 14:42 62.52514 -44.28181 34027 ft 465 kts 283°
2026-04-11 14:43 62.54684 -44.48611 34019 ft 465 kts 281°
2026-04-11 14:43 62.56000 -44.62376 34031 ft 467 kts 281°
2026-04-11 14:44 62.57367 -44.76133 34029 ft 468 kts 282°
2026-04-11 14:44 62.58755 -44.89911 34014 ft 469 kts 282°
2026-04-11 14:45 62.60143 -45.03722 34024 ft 470 kts 282°
2026-04-11 14:45 62.61632 -45.17602 34004 ft 470 kts 281°
2026-04-11 14:46 62.62925 -45.31502 34010 ft 469 kts 280°
2026-04-11 14:46 62.64209 -45.45367 34012 ft 469 kts 281°
2026-04-11 14:47 62.65521 -45.59234 34012 ft 469 kts 281°
2026-04-11 14:47 62.66839 -45.73162 34015 ft 468 kts 281°
2026-04-11 14:48 62.68146 -45.87018 34016 ft 466 kts 282°
2026-04-11 14:48 62.69459 -46.00818 34007 ft 466 kts 279°
2026-04-11 14:49 62.70679 -46.14682 34026 ft 467 kts 280°
2026-04-11 14:49 62.72548 -46.35591 34029 ft 470 kts 280°
2026-04-11 14:50 62.73791 -46.49614 34027 ft 471 kts 279°
2026-04-11 14:50 62.75015 -46.63604 34030 ft 471 kts 279°
2026-04-11 14:51 62.76295 -46.77651 34028 ft 471 kts 281°
2026-04-11 14:51 62.77522 -46.91708 34032 ft 470 kts 278°
2026-04-11 14:52 62.78636 -47.05758 34023 ft 468 kts 278°
2026-04-11 14:52 62.79766 -47.19696 34027 ft 468 kts 279°
2026-04-11 14:53 62.80913 -47.33679 34032 ft 467 kts 278°
2026-04-11 14:53 62.82051 -47.47680 34033 ft 467 kts 278°
2026-04-11 14:54 62.83172 -47.61664 34035 ft 467 kts 278°
2026-04-11 14:54 62.84279 -47.75684 34030 ft 467 kts 278°
2026-04-11 14:55 62.85372 -47.89719 34026 ft 468 kts 278°
2026-04-11 14:55 62.86447 -48.03706 34018 ft 468 kts 278°
2026-04-11 14:56 62.87516 -48.17809 34020 ft 468 kts 277°
2026-04-11 14:56 62.88569 -48.31892 34020 ft 468 kts 277°
2026-04-11 14:57 62.89603 -48.45926 34014 ft 468 kts 277°
2026-04-11 14:57 62.90629 -48.60054 34024 ft 468 kts 277°
2026-04-11 14:58 62.91641 -48.74185 34028 ft 468 kts 277°
2026-04-11 14:58 62.92631 -48.88218 34034 ft 468 kts 277°
2026-04-11 14:59 62.93614 -49.02352 34032 ft 468 kts 277°
2026-04-11 14:59 62.94581 -49.16488 34029 ft 468 kts 277°
2026-04-11 15:00 62.95534 -49.30614 34050 ft 468 kts 277°
2026-04-11 15:00 62.96475 -49.44801 34045 ft 469 kts 276°
2026-04-11 15:01 62.97403 -49.58989 34027 ft 469 kts 276°
2026-04-11 15:01 62.98317 -49.73217 34043 ft 469 kts 276°
2026-04-11 15:02 62.99216 -49.87387 34025 ft 470 kts 276°
2026-04-11 15:02 63.00570 -50.01483 34043 ft 473 kts 285°
2026-04-11 15:03 63.03056 -50.14966 34275 ft 477 kts 293°
2026-04-11 15:03 63.03993 -50.19355 34390 ft 477 kts 293°
2026-04-11 15:03 63.05872 -50.28119 34615 ft 477 kts 293°
2026-04-11 15:04 63.07289 -50.34764 34747 ft 478 kts 293°
2026-04-11 15:04 63.08242 -50.39262 34821 ft 479 kts 293°
2026-04-11 15:04 63.11031 -50.52573 35004 ft 482 kts 292°
2026-04-11 15:05 63.12431 -50.59320 35106 ft 483 kts 292°
2026-04-11 15:05 63.13825 -50.66077 35218 ft 484 kts 292°
2026-04-11 15:05 63.16616 -50.79673 35410 ft 486 kts 292°
2026-04-11 15:06 63.19409 -50.93365 35522 ft 488 kts 292°
2026-04-11 15:06 63.22182 -51.07042 35673 ft 489 kts 292°
2026-04-11 15:07 63.24967 -51.20871 35795 ft 491 kts 292°
2026-04-11 15:07 63.27741 -51.34740 35947 ft 491 kts 291°
2026-04-11 15:08 63.30509 -51.48673 36020 ft 493 kts 291°
2026-04-11 15:08 63.33278 -51.62706 36050 ft 496 kts 291°
2026-04-11 15:09 63.36041 -51.76810 36056 ft 498 kts 291°
2026-04-11 15:09 63.38801 -51.90994 36057 ft 499 kts 291°
2026-04-11 15:10 63.41544 -52.05190 36054 ft 499 kts 291°
2026-04-11 15:10 63.44280 -52.19449 36079 ft 498 kts 291°
2026-04-11 15:11 63.46997 -52.33711 36060 ft 497 kts 290°
2026-04-11 15:11 63.49677 -52.47882 36064 ft 496 kts 290°
2026-04-11 15:12 63.52349 -52.62108 36063 ft 494 kts 290°
2026-04-11 15:12 63.55002 -52.76334 36070 ft 493 kts 290°
2026-04-11 15:13 63.57636 -52.90568 36090 ft 492 kts 290°
2026-04-11 15:13 63.60237 -53.04718 36076 ft 492 kts 290°
2026-04-11 15:14 63.62837 -53.18960 36061 ft 489 kts 290°
2026-04-11 15:14 63.65409 -53.33145 36088 ft 490 kts 289°
2026-04-11 15:15 63.67956 -53.47321 36086 ft 492 kts 289°
2026-04-11 15:15 63.70524 -53.61718 36118 ft 494 kts 289°
2026-04-11 15:16 63.73072 -53.76095 36095 ft 496 kts 289°
2026-04-11 15:16 63.75625 -53.90609 36100 ft 497 kts 289°
2026-04-11 15:17 63.78152 -54.05082 36091 ft 498 kts 289°
2026-04-11 15:17 63.80688 -54.19717 36093 ft 498 kts 289°
2026-04-11 15:18 63.83204 -54.34348 36113 ft 498 kts 288°
2026-04-11 15:18 63.85688 -54.48910 36100 ft 498 kts 288°
2026-04-11 15:19 63.88172 -54.63579 36098 ft 497 kts 288°
2026-04-11 15:19 63.90636 -54.78244 36105 ft 497 kts 288°
2026-04-11 15:20 63.93087 -54.92945 36105 ft 496 kts 288°
2026-04-11 15:20 63.95496 -55.07510 36130 ft 494 kts 288°
2026-04-11 15:21 63.97904 -55.22183 36107 ft 494 kts 287°
2026-04-11 15:21 64.00291 -55.36846 36106 ft 493 kts 287°
2026-04-11 15:22 64.02664 -55.51538 36106 ft 493 kts 287°
2026-04-11 15:22 64.05022 -55.66250 36109 ft 493 kts 287°
2026-04-11 15:23 64.07362 -55.80974 36110 ft 493 kts 287°
2026-04-11 15:23 64.09691 -55.95739 36110 ft 493 kts 287°
2026-04-11 15:24 64.12001 -56.10509 36109 ft 493 kts 287°
2026-04-11 15:24 64.14286 -56.25236 36109 ft 493 kts 286°
2026-04-11 15:25 64.16577 -56.40120 36113 ft 493 kts 286°
2026-04-11 15:25 64.18835 -56.54917 36138 ft 493 kts 286°
2026-04-11 15:26 64.21081 -56.69758 36124 ft 495 kts 286°
2026-04-11 15:26 64.23326 -56.84721 36229 ft 496 kts 286°
2026-04-11 15:27 64.25565 -56.99760 36344 ft 496 kts 285°
2026-04-11 15:27 64.27783 -57.14794 36429 ft 497 kts 285°
2026-04-11 15:28 64.28891 -57.22346 36540 ft 494 kts 285°
2026-04-11 15:28 64.29988 -57.29853 36647 ft 492 kts 285°
2026-04-11 15:28 64.31073 -57.37311 36798 ft 491 kts 285°
2026-04-11 15:28 64.32154 -57.44785 36920 ft 490 kts 285°
2026-04-11 15:29 64.33226 -57.52225 37041 ft 489 kts 285°
2026-04-11 15:29 64.34282 -57.59586 37165 ft 488 kts 285°
2026-04-11 15:29 64.35347 -57.67039 37289 ft 487 kts 285°
2026-04-11 15:29 64.36404 -57.74472 37402 ft 486 kts 285°
2026-04-11 15:30 64.37442 -57.81797 37526 ft 484 kts 285°
2026-04-11 15:30 64.38486 -57.89200 37656 ft 483 kts 284°
2026-04-11 15:30 64.40562 -58.04017 37822 ft 483 kts 284°
2026-04-11 15:31 64.41583 -58.11350 37933 ft 482 kts 284°
2026-04-11 15:31 64.42610 -58.18761 38035 ft 482 kts 284°
2026-04-11 15:31 64.44640 -58.33501 38117 ft 481 kts 284°
2026-04-11 15:32 64.46669 -58.48366 38131 ft 481 kts 284°
2026-04-11 15:32 64.48664 -58.63118 38115 ft 482 kts 284°
2026-04-11 15:33 64.50656 -58.77971 38120 ft 482 kts 284°
2026-04-11 15:33 64.52630 -58.92827 38134 ft 483 kts 283°
2026-04-11 15:34 64.54605 -59.07824 38136 ft 483 kts 283°
2026-04-11 15:34 64.56545 -59.22691 38131 ft 484 kts 283°
2026-04-11 15:35 64.57521 -59.30234 38017 ft 486 kts 283°
2026-04-11 15:35 64.58491 -59.37754 38106 ft 484 kts 283°
2026-04-11 15:35 64.60422 -59.52812 38124 ft 484 kts 283°
2026-04-11 15:36 64.62328 -59.67835 38150 ft 485 kts 283°
2026-04-11 15:36 64.64220 -59.82882 38136 ft 485 kts 282°
2026-04-11 15:37 64.66100 -59.97986 38126 ft 485 kts 282°
2026-04-11 15:37 64.67976 -60.13200 38129 ft 486 kts 282°
2026-04-11 15:38 64.68916 -60.20885 37711 ft 493 kts 282°
2026-04-11 15:38 64.69850 -60.28571 37114 ft 500 kts 282°
2026-04-11 15:38 64.70803 -60.36451 36622 ft 505 kts 282°
2026-04-11 15:38 64.71752 -60.44317 36411 ft 504 kts 282°
2026-04-11 15:39 64.72701 -60.52206 36276 ft 500 kts 282°
2026-04-11 15:39 64.73635 -60.60005 36189 ft 496 kts 282°
2026-04-11 15:39 64.75478 -60.75542 36132 ft 494 kts 281°
2026-04-11 15:40 64.77293 -60.91046 36125 ft 495 kts 281°
2026-04-11 15:40 64.79097 -61.06604 36125 ft 497 kts 281°
2026-04-11 15:41 64.80896 -61.22271 36160 ft 498 kts 281°
2026-04-11 15:41 64.82678 -61.37951 36131 ft 499 kts 281°
2026-04-11 15:42 64.84457 -61.53771 36120 ft 500 kts 281°
2026-04-11 15:43 64.87090 -61.77504 36120 ft 500 kts 280°
2026-04-11 15:43 64.88818 -61.93294 36128 ft 499 kts 280°
2026-04-11 15:44 64.90536 -62.09170 36129 ft 498 kts 279°
2026-04-11 15:44 64.92220 -62.24904 36126 ft 497 kts 279°
2026-04-11 15:45 64.93886 -62.40646 36120 ft 495 kts 279°
2026-04-11 15:45 64.95538 -62.56434 36118 ft 494 kts 279°
2026-04-11 15:46 64.97165 -62.72159 36118 ft 493 kts 279°
2026-04-11 15:46 64.98781 -62.87935 36136 ft 494 kts 279°
2026-04-11 15:47 64.99904 -63.03799 36133 ft 487 kts 269°
2026-04-11 15:47 64.99855 -63.19697 36151 ft 483 kts 263°
2026-04-11 15:48 64.99601 -63.35536 36137 ft 484 kts 263°
2026-04-11 15:48 64.99355 -63.51492 36130 ft 485 kts 263°
2026-04-11 15:49 64.99118 -63.67392 36150 ft 485 kts 263°
2026-04-11 15:49 64.98915 -63.80684 36146 ft 486 kts 263°
2026-04-11 15:50 64.98611 -63.99303 36165 ft 486 kts 263°
2026-04-11 15:50 64.98376 -64.12661 36152 ft 487 kts 263°
2026-04-11 15:51 64.98078 -64.28684 36173 ft 487 kts 263°
2026-04-11 15:51 64.97766 -64.44601 36150 ft 487 kts 263°
2026-04-11 15:52 64.97437 -64.60491 36166 ft 486 kts 263°
2026-04-11 15:52 64.97090 -64.76417 36178 ft 486 kts 263°
2026-04-11 15:53 64.96727 -64.92320 36174 ft 485 kts 263°
2026-04-11 15:53 64.96347 -65.08232 36179 ft 484 kts 262°
2026-04-11 15:54 64.95950 -65.24115 36182 ft 483 kts 262°
2026-04-11 15:54 64.95537 -65.39940 36182 ft 483 kts 262°
2026-04-11 15:55 64.95108 -65.55763 36182 ft 482 kts 262°
2026-04-11 15:55 64.94664 -65.71496 36189 ft 483 kts 262°
2026-04-11 15:56 64.94201 -65.87319 36194 ft 484 kts 262°
2026-04-11 15:56 64.93721 -66.03142 36184 ft 484 kts 262°
2026-04-11 15:57 64.93223 -66.18990 36185 ft 484 kts 262°
2026-04-11 15:57 64.92713 -66.34703 36187 ft 484 kts 262°
2026-04-11 15:58 64.92182 -66.50533 36224 ft 484 kts 262°
2026-04-11 15:58 64.91633 -66.66376 36198 ft 484 kts 261°
2026-04-11 15:59 64.91072 -66.82107 36196 ft 484 kts 261°
2026-04-11 15:59 64.90492 -66.97920 36185 ft 484 kts 261°
2026-04-11 16:00 64.89893 -67.13748 36192 ft 484 kts 261°
2026-04-11 16:00 64.89278 -67.29562 36191 ft 484 kts 261°
2026-04-11 16:01 64.88651 -67.45232 36223 ft 484 kts 261°
2026-04-11 16:01 64.88001 -67.61033 36205 ft 484 kts 261°
2026-04-11 16:02 64.87336 -67.76826 36183 ft 484 kts 261°
2026-04-11 16:02 64.86656 -67.92559 36184 ft 483 kts 261°
2026-04-11 16:03 64.85964 -68.08193 36185 ft 482 kts 260°
2026-04-11 16:03 64.85253 -68.23864 36182 ft 482 kts 260°
2026-04-11 16:04 64.84526 -68.39517 36207 ft 482 kts 260°
2026-04-11 16:04 64.83782 -68.55171 36188 ft 482 kts 260°
2026-04-11 16:05 64.83021 -68.70824 36176 ft 481 kts 260°
2026-04-11 16:05 64.82243 -68.86471 36177 ft 481 kts 260°
2026-04-11 16:06 64.81055 -69.09754 36172 ft 481 kts 259°
2026-04-11 16:06 64.80238 -69.25362 36186 ft 481 kts 259°
2026-04-11 16:07 64.79439 -69.40938 36164 ft 480 kts 261°
2026-04-11 16:07 64.78628 -69.56430 36176 ft 479 kts 259°
2026-04-11 16:08 64.77722 -69.71925 36174 ft 479 kts 259°
2026-04-11 16:08 64.76827 -69.87299 36164 ft 479 kts 259°
2026-04-11 16:09 64.75928 -70.02803 36163 ft 479 kts 259°
2026-04-11 16:09 64.75022 -70.18250 36173 ft 479 kts 259°
2026-04-11 16:10 64.74095 -70.33727 36153 ft 479 kts 259°
2026-04-11 16:10 64.73157 -70.49110 36145 ft 480 kts 259°
2026-04-11 16:11 64.72197 -70.64589 36134 ft 480 kts 259°
2026-04-11 16:11 64.71221 -70.80041 36134 ft 480 kts 258°
2026-04-11 16:12 64.70227 -70.95500 36120 ft 480 kts 258°
2026-04-11 16:12 64.69225 -71.10826 36155 ft 480 kts 258°
2026-04-11 16:13 64.68198 -71.26290 36118 ft 481 kts 258°
2026-04-11 16:13 64.67155 -71.41738 36112 ft 481 kts 258°
2026-04-11 16:14 64.66101 -71.57101 36115 ft 482 kts 258°
2026-04-11 16:14 64.65024 -71.72542 36104 ft 482 kts 258°
2026-04-11 16:15 64.63928 -71.88031 36103 ft 482 kts 258°
2026-04-11 16:15 64.62819 -72.03450 36112 ft 482 kts 258°
2026-04-11 16:16 64.61701 -72.18764 36098 ft 481 kts 258°
2026-04-11 16:16 64.60564 -72.34108 36096 ft 480 kts 257°
2026-04-11 16:17 64.59413 -72.49410 36074 ft 478 kts 257°
2026-04-11 16:17 64.58251 -72.64644 36084 ft 477 kts 257°
2026-04-11 16:18 64.57081 -72.79759 36079 ft 475 kts 257°
2026-04-11 16:18 64.55895 -72.94867 36078 ft 474 kts 257°
2026-04-11 16:19 64.54692 -73.09976 36062 ft 474 kts 257°
2026-04-11 16:19 64.53477 -73.25035 36072 ft 473 kts 257°
2026-04-11 16:20 64.52250 -73.40049 36078 ft 473 kts 257°
2026-04-11 16:20 64.51014 -73.54966 36072 ft 473 kts 257°
2026-04-11 16:21 64.49753 -73.69992 36077 ft 473 kts 256°
2026-04-11 16:21 64.48477 -73.84990 36066 ft 474 kts 257°
2026-04-11 16:22 64.47184 -73.99991 36071 ft 475 kts 256°
2026-04-11 16:22 64.45883 -74.14910 36052 ft 475 kts 256°
2026-04-11 16:23 64.44557 -74.29924 36046 ft 475 kts 256°
2026-04-11 16:23 64.43215 -74.44930 36053 ft 475 kts 256°
2026-04-11 16:24 64.41857 -74.59931 36044 ft 476 kts 256°
2026-04-11 16:24 64.40493 -74.74813 36052 ft 476 kts 256°
2026-04-11 16:25 64.39105 -74.89778 36041 ft 476 kts 256°
2026-04-11 16:25 64.37699 -75.04750 36024 ft 475 kts 256°
2026-04-11 16:26 64.36285 -75.19634 36014 ft 474 kts 255°
2026-04-11 16:26 64.34866 -75.34409 36027 ft 474 kts 256°
2026-04-11 16:27 64.33415 -75.49225 36037 ft 473 kts 255°
2026-04-11 16:27 64.32002 -75.64085 36012 ft 474 kts 255°
2026-04-11 16:28 64.30509 -75.78883 36022 ft 475 kts 255°
2026-04-11 16:28 64.29003 -75.93700 36010 ft 475 kts 255°
2026-04-11 16:29 64.27494 -76.08537 35994 ft 475 kts 255°
2026-04-11 16:29 64.25984 -76.23251 35980 ft 475 kts 255°
2026-04-11 16:30 64.24449 -76.38067 35974 ft 475 kts 255°
2026-04-11 16:30 64.23281 -76.52963 35967 ft 472 kts 264°
2026-04-11 16:31 64.22836 -76.68019 36000 ft 473 kts 268°
2026-04-11 16:31 64.22992 -76.83218 35994 ft 476 kts 270°
2026-04-11 16:32 64.23260 -76.98344 35998 ft 478 kts 270°
2026-04-11 16:32 64.23447 -77.13639 36006 ft 479 kts 269°
2026-04-11 16:33 64.23562 -77.28981 36006 ft 480 kts 269°
2026-04-11 16:33 64.23645 -77.44341 35996 ft 481 kts 269°
2026-04-11 16:34 64.23711 -77.59749 35992 ft 482 kts 269°
2026-04-11 16:34 64.23765 -77.75161 35996 ft 481 kts 269°
2026-04-11 16:35 64.23804 -77.90475 35984 ft 481 kts 269°
2026-04-11 16:35 64.23827 -78.05849 36010 ft 480 kts 269°
2026-04-11 16:36 64.23833 -78.21158 35975 ft 480 kts 269°
2026-04-11 16:36 64.23824 -78.36519 35993 ft 479 kts 269°
2026-04-11 16:37 64.23798 -78.51825 35986 ft 478 kts 269°
2026-04-11 16:37 64.23757 -78.66999 35977 ft 477 kts 268°
2026-04-11 16:38 64.23699 -78.82275 35974 ft 477 kts 268°
2026-04-11 16:38 64.23639 -78.94967 35989 ft 477 kts 268°
2026-04-11 16:39 64.23537 -79.12689 35964 ft 477 kts 268°
2026-04-11 16:39 64.23451 -79.25398 35980 ft 477 kts 268°
2026-04-11 16:40 64.23333 -79.40664 35977 ft 477 kts 268°
2026-04-11 16:40 64.23199 -79.55897 35975 ft 477 kts 268°
2026-04-11 16:41 64.23049 -79.71127 35969 ft 478 kts 268°
2026-04-11 16:41 64.22882 -79.86444 35970 ft 478 kts 268°
2026-04-11 16:42 64.22701 -80.01651 35969 ft 479 kts 268°
2026-04-11 16:43 64.22397 -80.24621 35963 ft 479 kts 268°
2026-04-11 16:43 64.22175 -80.39930 35973 ft 479 kts 267°
2026-04-11 16:44 64.21906 -80.55163 35952 ft 478 kts 267°
2026-04-11 16:44 64.21637 -80.70464 35970 ft 478 kts 268°
2026-04-11 16:45 64.21404 -80.85676 35956 ft 479 kts 268°
2026-04-11 16:45 64.21130 -81.00987 35972 ft 479 kts 267°
2026-04-11 16:46 64.20829 -81.16239 35967 ft 479 kts 267°
2026-04-11 16:46 64.20507 -81.31570 35962 ft 479 kts 267°
2026-04-11 16:47 64.20174 -81.46792 35969 ft 479 kts 267°
2026-04-11 16:47 64.19822 -81.62124 35962 ft 480 kts 266°
2026-04-11 16:48 64.19458 -81.77337 35974 ft 479 kts 266°
2026-04-11 16:48 64.19074 -81.92675 35970 ft 479 kts 266°
2026-04-11 16:49 64.18678 -82.07869 35970 ft 479 kts 266°
2026-04-11 16:49 64.18263 -82.23086 35956 ft 479 kts 266°
2026-04-11 16:50 64.17833 -82.38374 35960 ft 479 kts 266°
2026-04-11 16:50 64.17395 -82.53555 35967 ft 479 kts 266°
2026-04-11 16:51 64.16930 -82.68859 35973 ft 479 kts 266°
2026-04-11 16:51 64.16453 -82.84040 35980 ft 479 kts 266°
2026-04-11 16:52 64.15959 -82.99295 35965 ft 479 kts 266°
2026-04-11 16:52 64.15453 -83.14517 35968 ft 478 kts 265°
2026-04-11 16:53 64.14418 -83.29449 35969 ft 478 kts 254°
2026-04-11 16:53 64.12081 -83.43627 35950 ft 472 kts 244°
2026-04-11 16:54 64.09077 -83.56959 35990 ft 470 kts 243°
2026-04-11 16:54 64.06079 -83.70142 35987 ft 472 kts 243°
2026-04-11 16:55 64.03057 -83.83484 35997 ft 474 kts 244°
2026-04-11 16:55 64.00020 -83.96896 35980 ft 475 kts 244°
2026-04-11 16:56 63.95463 -84.16889 35985 ft 476 kts 243°
2026-04-11 16:56 63.92390 -84.30266 35985 ft 475 kts 243°
2026-04-11 16:57 63.89317 -84.43553 35991 ft 473 kts 243°
2026-04-11 16:57 63.86256 -84.56710 35992 ft 471 kts 243°
2026-04-11 16:58 63.83268 -84.69790 36009 ft 467 kts 243°
2026-04-11 16:58 63.80148 -84.82785 36005 ft 471 kts 243°
2026-04-11 16:59 63.77050 -84.95775 36005 ft 473 kts 243°
2026-04-11 16:59 63.73926 -85.08890 36000 ft 474 kts 243°
2026-04-11 17:00 63.70776 -85.22045 36000 ft 475 kts 243°
2026-04-11 17:00 63.67642 -85.35049 35997 ft 474 kts 243°
2026-04-11 17:01 63.64485 -85.48056 35995 ft 471 kts 243°
2026-04-11 17:01 63.61337 -85.60953 35992 ft 468 kts 243°
2026-04-11 17:02 63.58191 -85.73769 35993 ft 466 kts 243°
2026-04-11 17:02 63.55066 -85.86424 36002 ft 466 kts 243°
2026-04-11 17:03 63.51912 -85.99123 36008 ft 469 kts 243°
2026-04-11 17:03 63.48716 -86.11922 36006 ft 471 kts 242°
2026-04-11 17:04 63.45499 -86.24767 35999 ft 472 kts 244°
2026-04-11 17:04 63.42295 -86.37472 36000 ft 472 kts 242°
2026-04-11 17:05 63.39052 -86.50184 35979 ft 472 kts 242°
2026-04-11 17:05 63.35799 -86.62882 35997 ft 469 kts 243°
2026-04-11 17:06 63.32564 -86.75457 36003 ft 466 kts 243°
2026-04-11 17:06 63.29350 -86.87889 36006 ft 464 kts 242°
2026-04-11 17:07 63.26127 -87.00286 36000 ft 463 kts 243°
2026-04-11 17:07 63.22886 -87.12687 36019 ft 465 kts 243°
2026-04-11 17:08 63.19631 -87.25072 36028 ft 468 kts 242°
2026-04-11 17:08 63.16330 -87.37555 36026 ft 470 kts 242°
2026-04-11 17:09 63.13012 -87.50033 36023 ft 470 kts 242°
2026-04-11 17:09 63.09709 -87.62387 36016 ft 469 kts 242°
2026-04-11 17:13 62.86436 -88.47561 36049 ft 468 kts 242°
2026-04-11 17:13 62.83034 -88.59742 36040 ft 467 kts 242°
2026-04-11 17:14 62.79647 -88.71802 36054 ft 464 kts 242°
2026-04-11 17:14 62.76277 -88.83740 36051 ft 462 kts 242°
2026-04-11 17:16 62.67849 -89.13331 36063 ft 458 kts 242°
2026-04-11 17:16 62.64451 -89.25159 36070 ft 461 kts 242°
2026-04-11 17:17 62.61026 -89.37013 36076 ft 463 kts 241°
2026-04-11 17:17 62.57590 -89.48843 36076 ft 465 kts 241°
2026-04-11 17:18 62.54146 -89.60636 36077 ft 465 kts 241°
2026-04-11 17:18 62.50661 -89.72508 36072 ft 463 kts 241°
2026-04-11 17:19 62.47213 -89.84188 36077 ft 460 kts 241°
2026-04-11 17:19 62.43778 -89.95771 36079 ft 458 kts 241°
2026-04-11 17:20 62.40335 -90.07322 36088 ft 455 kts 241°
2026-04-11 17:20 62.36898 -90.18799 36099 ft 458 kts 241°
2026-04-11 17:21 62.33432 -90.30317 36095 ft 461 kts 241°
2026-04-11 17:21 62.29915 -90.41942 36099 ft 462 kts 241°
2026-04-11 17:22 62.26399 -90.53499 36102 ft 463 kts 240°
2026-04-11 17:22 62.22880 -90.65007 36111 ft 463 kts 240°
2026-04-11 17:23 62.19332 -90.76548 36088 ft 460 kts 241°
2026-04-11 17:23 62.15819 -90.87921 36109 ft 458 kts 241°
2026-04-11 17:24 62.12316 -90.99212 36109 ft 456 kts 240°
2026-04-11 17:24 62.08805 -91.10470 36109 ft 455 kts 240°
2026-04-11 17:25 62.05302 -91.21648 36122 ft 454 kts 240°
2026-04-11 17:25 62.02371 -91.30962 36130 ft 454 kts 240°
2026-04-11 17:26 61.98827 -91.42170 36129 ft 455 kts 240°
2026-04-11 17:26 61.95293 -91.53292 36134 ft 456 kts 240°
2026-04-11 17:27 61.91734 -91.64440 36135 ft 457 kts 240°
2026-04-11 17:27 61.88159 -91.75580 36140 ft 457 kts 240°
2026-04-11 17:28 61.84562 -91.86736 36143 ft 457 kts 240°
2026-04-11 17:28 61.80973 -91.97814 36144 ft 457 kts 240°
2026-04-11 17:29 61.77354 -92.08930 36147 ft 457 kts 240°
2026-04-11 17:29 61.73755 -92.19930 36147 ft 456 kts 240°
2026-04-11 17:30 61.70143 -92.30917 36149 ft 455 kts 240°
2026-04-11 17:30 61.66553 -92.41787 36161 ft 455 kts 240°
2026-04-11 17:31 61.62933 -92.52699 36165 ft 454 kts 240°
2026-04-11 17:31 61.59302 -92.63592 36168 ft 454 kts 240°
2026-04-11 17:32 61.55663 -92.74455 36169 ft 454 kts 240°
2026-04-11 17:32 61.52021 -92.85278 36161 ft 454 kts 240°
2026-04-11 17:33 61.48389 -92.96019 36174 ft 454 kts 240°
2026-04-11 17:33 61.44728 -93.06797 36180 ft 454 kts 240°
2026-04-11 17:34 61.41050 -93.17572 36185 ft 455 kts 240°
2026-04-11 17:34 61.37369 -93.28309 36183 ft 455 kts 239°
2026-04-11 17:35 61.33697 -93.38969 36193 ft 455 kts 239°
2026-04-11 17:35 61.29996 -93.49663 36163 ft 455 kts 239°
2026-04-11 17:36 61.26280 -93.60347 36184 ft 453 kts 240°
2026-04-11 17:36 61.22585 -93.70927 36195 ft 452 kts 240°
2026-04-11 17:37 61.18885 -93.81476 36197 ft 451 kts 240°
2026-04-11 17:37 61.15207 -93.91919 36202 ft 450 kts 239°
2026-04-11 17:38 61.11505 -94.02379 36204 ft 450 kts 239°
2026-04-11 17:38 61.07326 -94.12157 36200 ft 459 kts 229°
2026-04-11 17:39 61.02662 -94.21127 36201 ft 458 kts 229°
2026-04-11 17:39 60.98027 -94.30066 36204 ft 459 kts 229°
2026-04-11 17:40 60.93376 -94.39056 36197 ft 458 kts 230°
2026-04-11 17:40 60.88722 -94.48039 36209 ft 458 kts 230°
2026-04-11 17:41 60.84062 -94.57000 36218 ft 459 kts 230°
2026-04-11 17:41 60.79400 -94.65924 36217 ft 459 kts 230°
2026-04-11 17:42 60.74729 -94.74827 36220 ft 459 kts 230°
2026-04-11 17:42 60.70078 -94.83654 36220 ft 458 kts 230°
2026-04-11 17:43 60.63069 -94.96887 36222 ft 456 kts 230°
2026-04-11 17:43 60.58409 -95.05641 36220 ft 456 kts 230°
2026-04-11 17:44 60.53738 -95.14381 36225 ft 456 kts 230°
2026-04-11 17:44 60.49062 -95.23094 36232 ft 455 kts 230°
2026-04-11 17:45 60.44417 -95.31712 36229 ft 455 kts 229°
2026-04-11 17:45 60.39739 -95.40360 36203 ft 455 kts 229°
2026-04-11 17:46 60.35060 -95.48970 36219 ft 455 kts 229°
2026-04-11 17:46 60.30375 -95.57556 36222 ft 454 kts 229°
2026-04-11 17:47 60.25723 -95.66050 36234 ft 453 kts 229°
2026-04-11 17:47 60.21039 -95.74570 36237 ft 453 kts 229°
2026-04-11 17:48 60.14006 -95.87294 36244 ft 453 kts 229°
2026-04-11 17:49 60.06954 -95.99977 36243 ft 453 kts 229°
2026-04-11 17:50 59.99901 -96.12583 36244 ft 452 kts 229°
2026-04-11 17:50 59.95234 -96.20885 36244 ft 451 kts 229°
2026-04-11 17:51 59.90533 -96.29214 36247 ft 451 kts 229°
2026-04-11 17:51 59.83486 -96.41641 36248 ft 451 kts 229°
2026-04-11 17:52 59.78784 -96.49891 36246 ft 451 kts 229°
2026-04-11 17:52 59.74106 -96.58068 36228 ft 450 kts 229°
2026-04-11 17:53 59.69392 -96.66272 36238 ft 449 kts 229°
2026-04-11 17:53 59.64681 -96.74441 36244 ft 449 kts 229°
2026-04-11 17:54 59.59985 -96.82554 36245 ft 448 kts 229°
2026-04-11 17:54 59.55285 -96.90643 36245 ft 448 kts 229°
2026-04-11 17:55 59.50615 -96.98647 36238 ft 448 kts 229°
2026-04-11 17:55 59.45904 -97.06692 36244 ft 448 kts 229°
2026-04-11 17:56 59.41191 -97.14711 36211 ft 448 kts 229°
2026-04-11 17:56 59.36489 -97.22674 36227 ft 446 kts 229°
2026-04-11 17:57 59.31794 -97.30602 36230 ft 445 kts 229°
2026-04-11 17:57 59.27097 -97.38502 36228 ft 444 kts 229°
2026-04-11 17:58 59.22406 -97.46362 36222 ft 444 kts 229°
2026-04-11 17:58 59.17740 -97.54153 36227 ft 444 kts 229°
2026-04-11 17:59 59.13039 -97.61971 36216 ft 444 kts 229°
2026-04-11 17:59 59.08325 -97.69780 36135 ft 444 kts 229°
2026-04-11 18:00 59.03634 -97.77518 36213 ft 441 kts 229°
2026-04-11 18:00 58.98957 -97.85210 36212 ft 440 kts 229°
2026-04-11 18:01 58.94313 -97.92820 36202 ft 439 kts 229°
2026-04-11 18:01 58.89646 -98.00440 36202 ft 439 kts 229°
2026-04-11 18:02 58.84975 -98.08039 36208 ft 439 kts 229°
2026-04-11 18:02 58.80319 -98.15585 36200 ft 439 kts 229°
2026-04-11 18:03 58.75641 -98.23140 36124 ft 438 kts 229°
2026-04-11 18:03 58.70971 -98.30648 36185 ft 436 kts 229°
2026-04-11 18:04 58.66313 -98.38117 36191 ft 435 kts 229°
2026-04-11 18:04 58.61662 -98.45547 36113 ft 434 kts 229°
2026-04-11 18:05 58.57010 -98.52953 36120 ft 434 kts 229°
2026-04-11 18:05 58.52387 -98.60285 36132 ft 434 kts 229°
2026-04-11 18:06 58.47734 -98.67640 36153 ft 434 kts 229°
2026-04-11 18:06 58.43072 -98.74982 36127 ft 434 kts 229°
2026-04-11 18:07 58.38410 -98.82295 36158 ft 433 kts 229°
2026-04-11 18:07 58.33750 -98.89582 36165 ft 433 kts 228°
2026-04-11 18:08 58.29079 -98.96862 36161 ft 433 kts 228°
2026-04-11 18:08 58.24402 -99.04123 36159 ft 434 kts 228°
2026-04-11 18:09 58.19727 -99.11357 36161 ft 434 kts 228°
2026-04-11 18:09 58.15070 -99.18537 36155 ft 434 kts 228°
2026-04-11 18:10 58.10341 -99.25592 36082 ft 428 kts 230°
2026-04-11 18:10 58.08236 -99.29348 36158 ft 409 kts 234°
2026-04-11 18:10 58.06090 -99.33009 36160 ft 420 kts 229°
2026-04-11 18:11 58.01419 -99.39881 36159 ft 430 kts 227°
2026-04-11 18:11 57.96662 -99.46795 36153 ft 433 kts 228°
2026-04-11 18:12 57.91960 -99.53804 36145 ft 434 kts 228°
2026-04-11 18:12 57.87251 -99.60900 36144 ft 433 kts 228°
2026-04-11 18:13 57.83318 -99.66824 36142 ft 431 kts 228°
2026-04-11 18:13 57.81077 -99.70350 36091 ft 420 kts 230°
2026-04-11 18:13 57.78778 -99.73747 36133 ft 421 kts 229°
2026-04-11 18:14 57.74283 -99.80605 36127 ft 419 kts 229°
2026-04-11 18:14 57.69664 -99.87345 36136 ft 422 kts 229°
2026-04-11 18:15 57.65032 -99.94155 36140 ft 425 kts 229°
2026-04-11 18:15 57.60389 -100.01018 36133 ft 426 kts 229°
2026-04-11 18:16 57.55738 -100.07883 36125 ft 425 kts 229°
2026-04-11 18:16 57.51127 -100.14665 36063 ft 423 kts 229°
2026-04-11 18:17 57.46522 -100.21412 36102 ft 420 kts 229°
2026-04-11 18:17 57.41954 -100.28087 36104 ft 417 kts 229°
2026-04-11 18:18 57.37406 -100.34715 36103 ft 415 kts 229°
2026-04-11 18:18 57.32864 -100.41315 36106 ft 414 kts 229°
2026-04-11 18:19 57.28314 -100.47904 36110 ft 415 kts 229°
2026-04-11 18:19 57.23788 -100.54437 36098 ft 416 kts 228°
2026-04-11 18:20 57.19203 -100.61031 36046 ft 417 kts 228°
2026-04-11 18:20 57.14620 -100.67600 36099 ft 418 kts 228°
2026-04-11 18:21 57.10006 -100.74194 36083 ft 420 kts 227°
2026-04-11 18:21 57.05379 -100.80784 36089 ft 421 kts 227°
2026-04-11 18:22 57.00731 -100.87382 36085 ft 422 kts 227°
2026-04-11 18:22 56.96076 -100.93971 36080 ft 423 kts 227°
2026-04-11 18:23 56.91445 -101.00504 36010 ft 422 kts 227°
2026-04-11 18:23 56.87075 -101.07476 35969 ft 410 kts 235°
2026-04-11 18:24 56.83447 -101.15361 35994 ft 401 kts 243°
2026-04-11 18:24 56.80301 -101.23771 36021 ft 401 kts 243°
2026-04-11 18:25 56.77160 -101.32174 36069 ft 402 kts 243°
2026-04-11 18:26 56.72403 -101.44796 36064 ft 403 kts 243°
2026-04-11 18:26 56.69222 -101.53182 36062 ft 403 kts 243°
2026-04-11 18:27 56.66027 -101.61575 36065 ft 403 kts 243°
2026-04-11 18:27 56.62839 -101.69921 36033 ft 403 kts 242°
2026-04-11 18:28 56.59615 -101.78330 36045 ft 403 kts 242°
2026-04-11 18:28 56.56426 -101.86623 36048 ft 403 kts 242°
2026-04-11 18:29 56.53211 -101.94952 35999 ft 403 kts 242°
2026-04-11 18:29 56.49990 -102.03270 36034 ft 403 kts 242°
2026-04-11 18:30 56.46762 -102.11579 36040 ft 403 kts 242°
2026-04-11 18:30 56.43529 -102.19873 36007 ft 404 kts 242°
2026-04-11 18:31 56.40305 -102.28114 36035 ft 404 kts 242°
2026-04-11 18:31 56.37047 -102.36421 36029 ft 404 kts 242°
2026-04-11 18:32 56.33799 -102.44665 36031 ft 404 kts 242°
2026-04-11 18:32 56.30529 -102.52948 36019 ft 405 kts 242°
2026-04-11 18:33 56.27253 -102.61227 36020 ft 405 kts 242°
2026-04-11 18:33 56.24000 -102.69421 35984 ft 405 kts 241°
2026-04-11 18:34 56.20720 -102.77657 36002 ft 404 kts 241°
2026-04-11 18:34 56.17460 -102.85818 36013 ft 404 kts 241°
2026-04-11 18:35 56.14176 -102.94009 36000 ft 403 kts 241°
2026-04-11 18:35 56.10902 -103.02121 36007 ft 403 kts 241°
2026-04-11 18:36 56.07593 -103.10278 36004 ft 404 kts 241°
2026-04-11 18:36 56.04278 -103.18430 35977 ft 404 kts 240°
2026-04-11 18:37 56.00986 -103.26503 35985 ft 404 kts 240°
2026-04-11 18:37 55.97684 -103.34576 35991 ft 404 kts 240°
2026-04-11 18:38 55.94372 -103.42646 35999 ft 404 kts 240°
2026-04-11 18:38 55.91036 -103.50746 35995 ft 404 kts 240°
2026-04-11 18:39 55.87712 -103.58791 35995 ft 405 kts 240°
2026-04-11 18:39 55.84365 -103.66866 35976 ft 405 kts 240°
2026-04-11 18:40 55.81580 -103.73564 35986 ft 404 kts 240°
2026-04-11 18:40 55.77673 -103.82929 35991 ft 403 kts 240°
2026-04-11 18:41 55.74336 -103.90902 35978 ft 404 kts 240°
2026-04-11 18:41 55.70964 -103.98933 35988 ft 404 kts 239°
2026-04-11 18:42 55.67615 -104.06881 35982 ft 405 kts 239°
2026-04-11 18:42 55.64226 -104.14899 35965 ft 405 kts 239°
2026-04-11 18:43 55.60859 -104.22837 35974 ft 405 kts 239°
2026-04-11 18:43 55.57462 -104.30822 35978 ft 405 kts 239°
2026-04-11 18:44 55.54079 -104.38747 35971 ft 405 kts 239°
2026-04-11 18:44 55.50667 -104.46716 35970 ft 406 kts 239°
2026-04-11 18:45 55.47254 -104.54659 35971 ft 405 kts 239°
2026-04-11 18:45 55.43860 -104.62533 35960 ft 405 kts 238°
2026-04-11 18:46 55.40458 -104.70400 35959 ft 404 kts 238°
2026-04-11 18:46 55.37041 -104.78275 35958 ft 404 kts 238°
2026-04-11 18:47 55.33616 -104.86148 35968 ft 405 kts 238°
2026-04-11 18:47 55.30204 -104.93967 35965 ft 405 kts 238°
2026-04-11 18:48 55.26766 -105.01818 35923 ft 406 kts 238°
2026-04-11 18:48 55.23315 -105.09673 35919 ft 406 kts 238°
2026-04-11 18:49 55.19868 -105.17500 35899 ft 407 kts 238°
2026-04-11 18:49 55.16295 -105.25224 35905 ft 410 kts 233°
2026-04-11 18:50 55.12089 -105.31979 35908 ft 416 kts 225°
2026-04-11 18:50 55.07544 -105.38267 35908 ft 416 kts 226°
2026-04-11 18:51 55.03020 -105.44542 35915 ft 416 kts 226°
2026-04-11 18:51 54.98480 -105.50843 35910 ft 416 kts 225°
2026-04-11 18:52 54.93951 -105.57118 35920 ft 416 kts 225°
2026-04-11 18:52 54.89426 -105.63370 35920 ft 416 kts 225°
2026-04-11 18:53 54.84887 -105.69624 35914 ft 416 kts 225°
2026-04-11 18:53 54.80355 -105.75849 35918 ft 416 kts 225°
2026-04-11 18:54 54.75818 -105.82061 35912 ft 416 kts 225°
2026-04-11 18:54 54.71267 -105.88276 35910 ft 416 kts 225°
2026-04-11 18:55 54.66727 -105.94456 35899 ft 416 kts 225°
2026-04-11 18:55 54.62183 -106.00625 35908 ft 416 kts 225°
2026-04-11 18:56 54.57606 -106.06819 35895 ft 417 kts 225°
2026-04-11 18:56 54.53052 -106.12966 35899 ft 417 kts 225°
2026-04-11 18:57 54.48478 -106.19120 35892 ft 417 kts 225°
2026-04-11 18:57 54.43924 -106.25231 35872 ft 417 kts 225°
2026-04-11 18:58 54.39338 -106.31365 35881 ft 416 kts 224°
2026-04-11 18:58 54.34743 -106.37494 35875 ft 417 kts 224°
2026-04-11 18:59 54.30949 -106.42542 35884 ft 417 kts 224°
2026-04-11 18:59 54.25586 -106.49657 35881 ft 418 kts 224°
2026-04-11 19:00 54.20993 -106.55732 35871 ft 419 kts 224°
2026-04-11 19:00 54.17148 -106.60805 35882 ft 419 kts 224°
2026-04-11 19:01 54.12524 -106.66890 35882 ft 419 kts 224°
2026-04-11 19:01 54.07918 -106.72926 35859 ft 419 kts 224°
2026-04-11 19:02 54.03270 -106.78993 35866 ft 420 kts 224°
2026-04-11 19:02 53.98646 -106.85015 35869 ft 421 kts 224°
2026-04-11 19:03 53.93985 -106.91071 35861 ft 422 kts 224°
2026-04-11 19:03 53.89338 -106.97091 35859 ft 422 kts 224°
2026-04-11 19:04 53.84651 -107.03145 35862 ft 422 kts 223°
2026-04-11 19:04 53.79987 -107.09151 35854 ft 422 kts 223°
2026-04-11 19:05 53.76089 -107.14159 35839 ft 421 kts 223°
2026-04-11 19:05 53.70647 -107.21131 35853 ft 420 kts 223°
2026-04-11 19:06 53.66013 -107.27052 35854 ft 420 kts 223°
2026-04-11 19:06 53.61334 -107.33011 35858 ft 419 kts 223°
2026-04-11 19:07 53.56970 -107.39336 35862 ft 413 kts 230°
2026-04-11 19:07 53.52890 -107.46105 35859 ft 413 kts 229°
2026-04-11 19:08 53.48754 -107.52883 35857 ft 414 kts 229°
2026-04-11 19:08 53.44643 -107.59588 35806 ft 414 kts 229°
2026-04-11 19:09 53.40500 -107.66328 35849 ft 413 kts 229°
2026-04-11 19:09 53.36383 -107.73007 35857 ft 413 kts 229°
2026-04-11 19:10 53.32261 -107.79676 35852 ft 414 kts 229°
2026-04-11 19:10 53.28101 -107.86387 35857 ft 414 kts 229°
2026-04-11 19:11 53.23972 -107.93031 35851 ft 415 kts 228°
2026-04-11 19:11 53.19802 -107.99720 35849 ft 415 kts 228°
2026-04-11 19:12 53.15652 -108.06359 35839 ft 415 kts 228°
2026-04-11 19:12 53.11489 -108.12998 35831 ft 415 kts 228°
2026-04-11 19:13 53.07315 -108.19638 35823 ft 414 kts 227°
2026-04-11 19:13 53.03161 -108.26227 35814 ft 414 kts 227°
2026-04-11 19:14 52.98981 -108.32840 35800 ft 414 kts 227°
2026-04-11 19:14 52.94819 -108.39404 35795 ft 414 kts 227°
2026-04-11 19:15 52.90633 -108.45988 35791 ft 414 kts 227°
2026-04-11 19:15 52.86459 -108.52535 35792 ft 414 kts 227°
2026-04-11 19:16 52.82281 -108.59070 35802 ft 414 kts 227°
2026-04-11 19:16 52.78074 -108.65633 35806 ft 415 kts 227°
2026-04-11 19:17 52.73897 -108.72131 35805 ft 414 kts 226°
2026-04-11 19:17 52.69685 -108.78663 35819 ft 415 kts 226°
2026-04-11 19:18 52.65473 -108.85179 35822 ft 415 kts 226°
2026-04-11 19:18 52.61270 -108.91663 35817 ft 416 kts 226°
2026-04-11 19:19 52.57049 -108.98156 35811 ft 417 kts 226°
2026-04-11 19:19 52.52797 -109.04678 35814 ft 417 kts 226°
2026-04-11 19:20 52.48559 -109.11161 35802 ft 418 kts 225°
2026-04-11 19:20 52.44292 -109.17671 35802 ft 418 kts 225°
2026-04-11 19:21 52.40040 -109.24141 35776 ft 418 kts 225°
2026-04-11 19:21 52.35786 -109.30594 35786 ft 419 kts 225°
2026-04-11 19:22 52.31488 -109.37097 35780 ft 420 kts 225°
2026-04-11 19:22 52.27195 -109.43575 35784 ft 421 kts 225°
2026-04-11 19:23 52.22891 -109.50051 35782 ft 422 kts 225°
2026-04-11 19:23 52.18560 -109.56550 35774 ft 422 kts 225°
2026-04-11 19:24 52.14244 -109.63009 35772 ft 422 kts 225°
2026-04-11 19:24 52.09936 -109.69437 35769 ft 422 kts 225°
2026-04-11 19:25 52.05595 -109.75898 35755 ft 421 kts 224°
2026-04-11 19:25 52.01278 -109.82305 35764 ft 422 kts 224°
2026-04-11 19:26 51.96953 -109.88709 35767 ft 422 kts 224°
2026-04-11 19:26 51.92586 -109.95158 35755 ft 423 kts 224°
2026-04-11 19:27 51.88187 -110.01462 35764 ft 425 kts 220°
2026-04-11 19:27 51.83514 -110.07293 35768 ft 426 kts 220°
2026-04-11 19:28 51.78809 -110.13144 35760 ft 426 kts 220°
2026-04-11 19:28 51.74125 -110.18976 35757 ft 427 kts 220°
2026-04-11 19:29 51.69407 -110.24845 35755 ft 427 kts 220°
2026-04-11 19:29 51.64713 -110.30670 35754 ft 427 kts 219°
2026-04-11 19:30 51.60008 -110.36494 35752 ft 427 kts 219°
2026-04-11 19:30 51.55295 -110.42312 35751 ft 427 kts 219°
2026-04-11 19:31 51.50554 -110.48148 35753 ft 427 kts 219°
2026-04-11 19:31 51.45843 -110.53932 35750 ft 427 kts 219°
2026-04-11 19:32 51.41131 -110.59703 35727 ft 427 kts 219°
2026-04-11 19:32 51.36404 -110.65475 35740 ft 428 kts 219°
2026-04-11 19:33 51.31655 -110.71259 35747 ft 428 kts 219°
2026-04-11 19:33 51.26920 -110.77011 35743 ft 429 kts 219°
2026-04-11 19:34 51.22159 -110.82779 35745 ft 429 kts 218°
2026-04-11 19:34 51.17382 -110.88551 35745 ft 430 kts 218°
2026-04-11 19:35 51.12616 -110.94294 35735 ft 430 kts 218°
2026-04-11 19:35 51.07848 -111.00025 35724 ft 430 kts 218°
2026-04-11 19:36 51.03084 -111.05736 35736 ft 431 kts 218°
2026-04-11 19:36 50.98287 -111.11471 35730 ft 431 kts 218°
2026-04-11 19:37 50.91107 -111.20026 35735 ft 431 kts 218°
2026-04-11 19:37 50.86302 -111.25732 35731 ft 432 kts 218°
2026-04-11 19:38 50.81490 -111.31432 35740 ft 432 kts 218°
2026-04-11 19:38 50.76678 -111.37117 35720 ft 432 kts 218°
2026-04-11 19:39 50.71851 -111.42805 35739 ft 432 kts 218°
2026-04-11 19:39 50.67053 -111.48443 35739 ft 433 kts 218°
2026-04-11 19:40 50.62218 -111.54110 35731 ft 433 kts 217°
2026-04-11 19:40 50.57367 -111.59782 35732 ft 434 kts 217°
2026-04-11 19:41 50.52508 -111.65447 35732 ft 434 kts 217°
2026-04-11 19:41 50.47649 -111.71098 35731 ft 435 kts 217°
2026-04-11 19:42 50.42777 -111.76749 35728 ft 435 kts 217°
2026-04-11 19:42 50.37931 -111.82355 35739 ft 435 kts 217°
2026-04-11 19:43 50.33062 -111.87974 35732 ft 435 kts 217°
2026-04-11 19:43 50.28196 -111.93574 35733 ft 435 kts 217°
2026-04-11 19:44 50.23294 -111.99200 35732 ft 435 kts 217°
2026-04-11 19:44 50.18420 -112.04781 35730 ft 435 kts 217°
2026-04-11 19:45 50.13555 -112.10336 35724 ft 434 kts 216°
2026-04-11 19:45 50.08705 -112.15861 35732 ft 433 kts 216°
2026-04-11 19:46 50.03854 -112.21372 35729 ft 432 kts 216°
2026-04-11 19:46 49.98982 -112.26893 35733 ft 431 kts 216°
2026-04-11 19:47 49.94165 -112.32338 35734 ft 430 kts 216°
2026-04-11 19:47 49.89304 -112.37819 35740 ft 430 kts 216°
2026-04-11 19:48 49.84471 -112.43255 35734 ft 430 kts 216°
2026-04-11 19:48 49.79649 -112.48664 35733 ft 430 kts 216°
2026-04-11 19:49 49.75608 -112.53188 35713 ft 430 kts 216°
2026-04-11 19:49 49.70747 -112.58619 35703 ft 430 kts 215°
2026-04-11 19:50 49.65905 -112.64013 35695 ft 430 kts 215°
2026-04-11 19:50 49.61248 -112.69817 35695 ft 430 kts 223°
2026-04-11 19:51 49.56941 -112.76149 35697 ft 431 kts 222°
2026-04-11 19:51 49.52569 -112.82502 35694 ft 431 kts 222°
2026-04-11 19:52 49.48208 -112.88804 35695 ft 431 kts 222°
2026-04-11 19:52 49.43828 -112.95115 35710 ft 431 kts 221°
2026-04-11 19:53 49.39456 -113.01397 35708 ft 431 kts 221°
2026-04-11 19:53 49.35076 -113.07676 35703 ft 432 kts 221°
2026-04-11 19:54 49.30696 -113.13939 35700 ft 432 kts 221°
2026-04-11 19:54 49.26273 -113.20248 35696 ft 432 kts 221°
2026-04-11 19:55 49.21875 -113.26504 35690 ft 433 kts 221°
2026-04-11 19:55 49.17466 -113.32761 35682 ft 434 kts 221°
2026-04-11 19:56 49.13026 -113.39047 35686 ft 434 kts 221°
2026-04-11 19:56 49.08591 -113.45310 35698 ft 434 kts 221°
2026-04-11 19:57 49.04163 -113.51548 35687 ft 435 kts 221°
2026-04-11 19:57 48.99730 -113.57775 35702 ft 435 kts 221°
2026-04-11 19:58 48.95269 -113.64014 35698 ft 435 kts 221°
2026-04-11 19:58 48.90810 -113.70231 35722 ft 435 kts 221°
2026-04-11 19:59 48.86344 -113.76446 35723 ft 436 kts 221°
2026-04-11 19:59 48.81856 -113.82679 35748 ft 436 kts 221°
2026-04-11 20:00 48.77372 -113.88889 35754 ft 436 kts 221°
2026-04-11 20:00 48.72906 -113.95060 35752 ft 436 kts 220°
2026-04-11 20:01 48.68400 -114.01268 35752 ft 437 kts 220°
2026-04-11 20:01 48.63920 -114.07427 35754 ft 436 kts 220°
2026-04-11 20:02 48.59416 -114.13603 35767 ft 436 kts 220°
2026-04-11 20:02 48.54919 -114.19752 35763 ft 437 kts 220°
2026-04-11 20:03 48.50414 -114.25900 35777 ft 438 kts 220°
2026-04-11 20:03 48.45865 -114.32090 35774 ft 439 kts 220°
2026-04-11 20:04 48.41339 -114.38233 35762 ft 439 kts 220°
2026-04-11 20:04 48.36782 -114.44403 35770 ft 440 kts 221°
2026-04-11 20:05 48.32249 -114.50526 35767 ft 441 kts 221°
2026-04-11 20:05 48.27679 -114.56684 35769 ft 442 kts 221°
2026-04-11 20:06 48.23074 -114.62873 35767 ft 442 kts 221°
2026-04-11 20:06 48.18497 -114.69008 35782 ft 442 kts 221°
2026-04-11 20:07 48.13916 -114.75134 35757 ft 443 kts 220°
2026-04-11 20:07 48.09307 -114.81282 35770 ft 442 kts 220°
2026-04-11 20:08 48.04737 -114.87363 35762 ft 441 kts 220°
2026-04-11 20:08 48.00146 -114.93457 35767 ft 440 kts 220°
2026-04-11 20:09 47.95565 -114.99520 35775 ft 441 kts 220°
2026-04-11 20:09 47.90965 -115.05596 35781 ft 441 kts 220°
2026-04-11 20:10 47.88687 -115.08600 35775 ft 442 kts 220°
2026-04-11 20:10 47.87904 -115.09630 35773 ft 442 kts 220°
2026-04-11 20:11 47.77148 -115.23756 35793 ft 443 kts 220°
2026-04-11 20:11 47.72516 -115.29813 35786 ft 444 kts 220°
2026-04-11 20:12 47.67865 -115.35880 35793 ft 445 kts 220°
2026-04-11 20:12 47.63218 -115.41928 35788 ft 446 kts 220°
2026-04-11 20:13 47.58536 -115.48008 35787 ft 446 kts 220°
2026-04-11 20:13 47.53882 -115.54038 35793 ft 446 kts 220°
2026-04-11 20:14 47.49186 -115.60074 35796 ft 446 kts 218°
2026-04-11 20:14 47.43981 -115.64968 35793 ft 443 kts 206°
2026-04-11 20:15 47.38303 -115.68403 35801 ft 442 kts 199°
2026-04-11 20:15 47.32432 -115.71273 35796 ft 441 kts 199°
2026-04-11 20:16 47.26622 -115.74108 35790 ft 441 kts 199°
2026-04-11 20:16 47.20806 -115.76970 35792 ft 441 kts 199°
2026-04-11 20:17 47.15007 -115.79834 35787 ft 440 kts 199°
2026-04-11 20:17 47.09207 -115.82698 35799 ft 440 kts 199°
2026-04-11 20:18 47.03412 -115.85551 35793 ft 440 kts 199°
2026-04-11 20:18 46.97575 -115.88418 35804 ft 441 kts 199°
2026-04-11 20:19 46.91783 -115.91256 35796 ft 441 kts 198°
2026-04-11 20:19 46.85946 -115.94111 35801 ft 442 kts 198°
2026-04-11 20:20 46.80135 -115.96946 35791 ft 442 kts 198°
2026-04-11 20:20 46.74274 -115.99799 35799 ft 442 kts 198°
2026-04-11 20:21 46.68471 -116.02616 35784 ft 441 kts 198°
2026-04-11 20:21 46.62644 -116.05440 35798 ft 442 kts 198°
2026-04-11 20:22 46.56803 -116.08263 35796 ft 441 kts 198°
2026-04-11 20:22 46.50999 -116.11061 35790 ft 441 kts 198°
2026-04-11 20:23 46.45159 -116.13871 35783 ft 442 kts 198°
2026-04-11 20:23 46.39341 -116.16665 35796 ft 442 kts 198°
2026-04-11 20:24 46.33479 -116.19473 35789 ft 443 kts 198°
2026-04-11 20:24 46.27600 -116.22283 35787 ft 445 kts 198°
2026-04-11 20:25 46.21731 -116.25082 35787 ft 446 kts 198°
2026-04-11 20:25 46.15842 -116.27884 35775 ft 447 kts 198°
2026-04-11 20:26 46.09906 -116.30702 35779 ft 447 kts 198°
2026-04-11 20:26 46.04005 -116.33496 35776 ft 449 kts 198°
2026-04-11 20:27 45.98084 -116.36294 35781 ft 450 kts 198°
2026-04-11 20:27 45.92102 -116.39115 35765 ft 451 kts 198°
2026-04-11 20:28 45.86135 -116.41921 35767 ft 451 kts 198°
2026-04-11 20:28 45.80195 -116.44710 35765 ft 452 kts 198°
2026-04-11 20:29 45.74225 -116.47506 35768 ft 452 kts 198°
2026-04-11 20:29 45.68216 -116.50313 35762 ft 452 kts 198°
2026-04-11 20:30 45.62235 -116.53103 35764 ft 453 kts 198°
2026-04-11 20:30 45.56256 -116.55884 35761 ft 453 kts 198°
2026-04-11 20:31 45.50265 -116.58664 35755 ft 453 kts 198°
2026-04-11 20:31 45.44282 -116.61435 35757 ft 453 kts 199°
2026-04-11 20:32 45.38275 -116.64210 35771 ft 453 kts 199°
2026-04-11 20:32 45.32305 -116.66962 35787 ft 454 kts 199°
2026-04-11 20:33 45.26254 -116.69745 35785 ft 455 kts 199°
2026-04-11 20:33 45.20250 -116.72502 35771 ft 455 kts 199°
2026-04-11 20:34 45.14243 -116.75252 35792 ft 455 kts 199°
2026-04-11 20:34 45.08191 -116.78017 35791 ft 455 kts 199°
2026-04-11 20:35 45.02180 -116.80757 35803 ft 454 kts 199°
2026-04-11 20:35 44.97170 -116.83037 35813 ft 454 kts 199°
2026-04-11 20:36 44.91168 -116.85763 35814 ft 454 kts 199°
2026-04-11 20:36 44.85140 -116.88495 35829 ft 454 kts 199°
2026-04-11 20:37 44.79129 -116.91211 35815 ft 455 kts 199°
2026-04-11 20:37 44.73105 -116.93929 35823 ft 455 kts 199°
2026-04-11 20:38 44.67053 -116.96653 35818 ft 455 kts 199°
2026-04-11 20:38 44.61040 -116.99353 35825 ft 455 kts 199°
2026-04-11 20:39 44.54993 -117.02063 35828 ft 455 kts 199°
2026-04-11 20:39 44.48975 -117.04754 35823 ft 455 kts 199°
2026-04-11 20:40 44.42933 -117.07450 35827 ft 455 kts 199°
2026-04-11 20:40 44.36898 -117.10137 35837 ft 455 kts 199°
2026-04-11 20:41 44.30850 -117.12824 35831 ft 456 kts 199°
2026-04-11 20:41 44.24825 -117.15495 35829 ft 455 kts 199°
2026-04-11 20:42 44.18756 -117.18179 35835 ft 455 kts 200°
2026-04-11 20:42 44.12749 -117.20831 35828 ft 455 kts 200°
2026-04-11 20:43 44.06702 -117.23494 35825 ft 455 kts 199°
2026-04-11 20:43 44.00670 -117.26146 35808 ft 455 kts 199°
2026-04-11 20:44 43.94657 -117.28783 35818 ft 454 kts 199°
2026-04-11 20:44 43.88630 -117.31420 35819 ft 455 kts 199°
2026-04-11 20:45 43.82566 -117.34069 35816 ft 455 kts 199°
2026-04-11 20:45 43.76536 -117.36697 35804 ft 455 kts 199°
2026-04-11 20:46 43.70511 -117.39317 35811 ft 454 kts 199°
2026-04-11 20:47 43.61489 -117.43229 35817 ft 453 kts 199°
2026-04-11 20:47 43.55464 -117.45836 35813 ft 452 kts 199°
2026-04-11 20:48 43.49490 -117.48414 35805 ft 451 kts 199°
2026-04-11 20:48 43.43535 -117.51093 35807 ft 450 kts 200°
2026-04-11 20:49 43.37564 -117.53685 35807 ft 449 kts 198°
2026-04-11 20:49 43.31603 -117.56143 35811 ft 448 kts 198°
2026-04-11 20:50 43.25628 -117.58657 35816 ft 448 kts 199°
2026-04-11 20:50 43.19683 -117.61195 35819 ft 448 kts 199°
2026-04-11 20:51 43.13746 -117.63732 35819 ft 447 kts 199°
2026-04-11 20:51 43.07827 -117.66253 35800 ft 447 kts 199°
2026-04-11 20:52 43.01865 -117.68785 35811 ft 446 kts 199°
2026-04-11 20:52 42.95941 -117.71296 35814 ft 446 kts 199°
2026-04-11 20:53 42.90030 -117.73796 35819 ft 446 kts 199°
2026-04-11 20:53 42.84116 -117.76292 35803 ft 445 kts 199°
2026-04-11 20:54 42.78191 -117.78788 35826 ft 445 kts 199°
2026-04-11 20:54 42.72294 -117.81268 35829 ft 444 kts 199°
2026-04-11 20:55 42.66397 -117.83743 35837 ft 444 kts 199°
2026-04-11 20:55 42.60499 -117.86214 35830 ft 444 kts 199°
2026-04-11 20:56 42.54792 -117.89309 35841 ft 441 kts 206°
2026-04-11 20:56 42.49190 -117.92825 35832 ft 441 kts 206°
2026-04-11 20:57 42.43633 -117.96273 35829 ft 441 kts 206°
2026-04-11 20:57 42.38042 -117.99703 35820 ft 441 kts 206°
2026-04-11 20:58 42.32460 -118.03109 35823 ft 441 kts 206°
2026-04-11 20:58 42.26859 -118.06518 35820 ft 441 kts 206°
2026-04-11 20:59 42.21286 -118.09905 35823 ft 442 kts 206°
2026-04-11 20:59 42.15649 -118.13324 35824 ft 442 kts 206°
2026-04-11 21:00 42.10063 -118.16706 35829 ft 441 kts 206°
2026-04-11 21:00 42.04470 -118.20085 35836 ft 441 kts 206°
2026-04-11 21:01 41.98879 -118.23457 35839 ft 441 kts 206°
2026-04-11 21:01 41.93293 -118.26818 35818 ft 441 kts 206°
2026-04-11 21:02 41.87673 -118.30194 35831 ft 441 kts 206°
2026-04-11 21:02 41.82092 -118.33541 35837 ft 440 kts 206°
2026-04-11 21:03 41.76521 -118.36875 35834 ft 440 kts 206°
2026-04-11 21:03 41.70912 -118.40225 35832 ft 439 kts 206°
2026-04-11 21:04 41.65361 -118.43534 35828 ft 438 kts 206°
2026-04-11 21:04 41.59780 -118.46855 35825 ft 437 kts 206°
2026-04-11 21:05 41.54227 -118.50152 35831 ft 435 kts 206°
2026-04-11 21:05 41.48722 -118.53415 35824 ft 434 kts 206°
2026-04-11 21:06 41.43227 -118.56666 35822 ft 433 kts 206°
2026-04-11 21:06 41.37704 -118.59928 35827 ft 432 kts 206°
2026-04-11 21:07 41.32215 -118.63164 35829 ft 431 kts 206°
2026-04-11 21:07 41.26753 -118.66378 35827 ft 431 kts 206°
2026-04-11 21:08 41.21242 -118.69615 35825 ft 431 kts 206°
2026-04-11 21:08 41.15766 -118.72825 35826 ft 431 kts 206°
2026-04-11 21:09 41.10279 -118.76035 35830 ft 431 kts 206°
2026-04-11 21:09 41.04795 -118.79239 35822 ft 431 kts 206°
2026-04-11 21:10 40.99302 -118.82441 35816 ft 431 kts 206°
2026-04-11 21:10 40.93788 -118.85650 35804 ft 431 kts 206°
2026-04-11 21:11 40.88311 -118.88832 35820 ft 431 kts 206°
2026-04-11 21:11 40.82820 -118.92016 35802 ft 431 kts 206°
2026-04-11 21:12 40.77335 -118.95191 35814 ft 431 kts 206°
2026-04-11 21:12 40.71830 -118.98371 35817 ft 431 kts 206°
2026-04-11 21:13 40.66383 -119.01514 35824 ft 430 kts 206°
2026-04-11 21:13 40.60901 -119.04671 35815 ft 429 kts 206°
2026-04-11 21:14 40.55433 -119.07812 35816 ft 428 kts 206°
2026-04-11 21:14 40.49966 -119.10945 35805 ft 427 kts 206°
2026-04-11 21:15 40.44613 -119.14005 35787 ft 410 kts 206°
2026-04-11 21:15 40.42048 -119.15466 35785 ft 395 kts 207°
2026-04-11 21:15 40.39574 -119.16875 35791 ft 382 kts 207°
2026-04-11 21:16 40.34699 -119.19661 35785 ft 382 kts 207°
2026-04-11 21:16 40.29830 -119.22441 35806 ft 381 kts 207°
2026-04-11 21:17 40.24954 -119.25217 35821 ft 382 kts 207°
2026-04-11 21:17 40.20072 -119.27991 35809 ft 382 kts 207°
2026-04-11 21:18 40.15237 -119.30733 35806 ft 381 kts 207°
2026-04-11 21:18 40.10374 -119.33485 35785 ft 379 kts 207°
2026-04-11 21:19 40.05529 -119.36224 35799 ft 377 kts 207°
2026-04-11 21:19 40.00744 -119.38925 35804 ft 376 kts 207°
2026-04-11 21:20 39.95950 -119.41627 35795 ft 375 kts 207°
2026-04-11 21:20 39.91130 -119.44341 35802 ft 379 kts 207°
2026-04-11 21:21 39.86290 -119.47061 35790 ft 379 kts 207°
2026-04-11 21:21 39.81443 -119.49779 35806 ft 379 kts 207°
2026-04-11 21:22 39.77416 -119.52035 35827 ft 379 kts 207°
2026-04-11 21:22 39.72537 -119.54765 35858 ft 387 kts 207°
2026-04-11 21:22 39.69996 -119.56019 35728 ft 395 kts 204°
2026-04-11 21:23 39.67383 -119.57171 35180 ft 399 kts 202°
2026-04-11 21:23 39.64731 -119.58301 34491 ft 401 kts 202°
2026-04-11 21:23 39.62071 -119.59426 33844 ft 403 kts 202°
2026-04-11 21:23 39.59399 -119.60560 33163 ft 403 kts 202°
2026-04-11 21:24 39.56739 -119.61694 32619 ft 400 kts 202°
2026-04-11 21:24 39.54106 -119.62822 32164 ft 396 kts 202°
2026-04-11 21:24 39.51504 -119.63941 31723 ft 392 kts 202°
2026-04-11 21:24 39.48966 -119.65035 31269 ft 388 kts 201°
2026-04-11 21:25 39.46410 -119.66139 30781 ft 385 kts 201°
2026-04-11 21:25 39.43875 -119.67234 30281 ft 383 kts 201°
2026-04-11 21:25 39.41351 -119.68324 29728 ft 381 kts 201°
2026-04-11 21:25 39.38845 -119.69405 29189 ft 378 kts 201°
2026-04-11 21:26 39.36348 -119.70481 28449 ft 381 kts 201°
2026-04-11 21:26 39.33744 -119.71608 27747 ft 407 kts 201°
2026-04-11 21:26 39.31012 -119.72790 27662 ft 420 kts 201°
2026-04-11 21:26 39.28215 -119.73995 27549 ft 426 kts 201°
2026-04-11 21:27 39.25396 -119.75204 27418 ft 427 kts 201°
2026-04-11 21:27 39.22585 -119.76407 27280 ft 425 kts 201°
2026-04-11 21:27 39.19783 -119.77605 27149 ft 424 kts 201°
2026-04-11 21:27 39.16993 -119.78800 27028 ft 431 kts 201°
2026-04-11 21:28 39.14170 -119.80007 26946 ft 425 kts 201°
2026-04-11 21:28 39.11347 -119.81214 26907 ft 431 kts 201°
2026-04-11 21:28 39.08481 -119.82440 26912 ft 436 kts 201°
2026-04-11 21:28 39.05600 -119.83671 26899 ft 436 kts 201°
2026-04-11 21:29 39.02719 -119.84899 26906 ft 437 kts 201°
2026-04-11 21:29 38.99823 -119.86133 26891 ft 437 kts 201°
2026-04-11 21:29 38.96944 -119.87358 26878 ft 436 kts 201°
2026-04-11 21:29 38.94074 -119.88578 26910 ft 435 kts 201°
2026-04-11 21:30 38.91184 -119.89807 26923 ft 435 kts 201°
2026-04-11 21:30 38.88311 -119.91028 26918 ft 435 kts 201°
2026-04-11 21:30 38.85468 -119.92234 26918 ft 434 kts 201°
2026-04-11 21:30 38.82603 -119.93449 26915 ft 435 kts 201°
2026-04-11 21:31 38.79733 -119.94666 26919 ft 434 kts 201°
2026-04-11 21:31 38.76851 -119.95885 26910 ft 435 kts 201°
2026-04-11 21:31 38.73980 -119.97100 26916 ft 435 kts 201°
2026-04-11 21:32 38.68199 -119.99544 26925 ft 445 kts 201°
2026-04-11 21:32 38.65240 -120.00795 26899 ft 449 kts 201°
2026-04-11 21:32 38.62268 -120.02047 26884 ft 450 kts 201°
2026-04-11 21:32 38.59303 -120.03294 26921 ft 449 kts 201°
2026-04-11 21:33 38.56330 -120.04543 26902 ft 449 kts 201°
2026-04-11 21:33 38.53363 -120.05791 26920 ft 448 kts 201°
2026-04-11 21:33 38.50401 -120.07036 26936 ft 448 kts 201°
2026-04-11 21:33 38.47445 -120.08276 26935 ft 446 kts 201°
2026-04-11 21:34 38.44495 -120.09512 26939 ft 447 kts 201°
2026-04-11 21:34 38.41574 -120.10736 26951 ft 447 kts 201°
2026-04-11 21:34 38.38621 -120.11972 26975 ft 447 kts 202°
2026-04-11 21:34 38.35674 -120.13233 26953 ft 445 kts 202°
2026-04-11 21:35 38.32735 -120.14461 26943 ft 443 kts 202°
2026-04-11 21:35 38.29811 -120.15671 26920 ft 441 kts 202°
2026-04-11 21:35 38.26894 -120.16878 26925 ft 440 kts 202°
2026-04-11 21:35 38.23987 -120.18084 26932 ft 439 kts 202°
2026-04-11 21:36 38.21088 -120.19289 26933 ft 439 kts 202°
2026-04-11 21:36 38.18178 -120.20500 26952 ft 439 kts 202°
2026-04-11 21:36 38.15277 -120.21707 26933 ft 439 kts 202°
2026-04-11 21:36 38.12368 -120.22917 26944 ft 440 kts 202°
2026-04-11 21:37 38.09480 -120.24116 26945 ft 441 kts 202°
2026-04-11 21:37 38.06546 -120.25333 26926 ft 441 kts 202°
2026-04-11 21:37 38.03627 -120.26543 26930 ft 441 kts 202°
2026-04-11 21:37 38.00699 -120.27756 26928 ft 442 kts 202°
2026-04-11 21:38 37.97806 -120.28953 26923 ft 442 kts 202°
2026-04-11 21:38 37.94882 -120.30161 26932 ft 442 kts 202°
2026-04-11 21:38 37.91941 -120.31376 26932 ft 442 kts 202°
2026-04-11 21:38 37.89044 -120.32572 26931 ft 442 kts 202°
2026-04-11 21:39 37.86143 -120.33766 26913 ft 428 kts 202°
2026-04-11 21:39 37.83363 -120.34906 26892 ft 407 kts 202°
2026-04-11 21:39 37.80718 -120.35992 26902 ft 389 kts 202°
2026-04-11 21:39 37.78223 -120.37017 26899 ft 373 kts 203°
2026-04-11 21:40 37.75807 -120.38008 26926 ft 356 kts 203°
2026-04-11 21:40 37.73574 -120.39175 26931 ft 344 kts 216°
2026-04-11 21:40 37.71766 -120.41111 26937 ft 343 kts 230°
2026-04-11 21:40 37.70330 -120.43516 26607 ft 344 kts 237°
2026-04-11 21:41 37.69240 -120.46218 26154 ft 345 kts 249°
2026-04-11 21:41 37.68783 -120.49192 25716 ft 344 kts 257°
2026-04-11 21:41 37.68478 -120.52155 25267 ft 342 kts 257°
2026-04-11 21:41 37.68165 -120.55133 24823 ft 340 kts 257°
2026-04-11 21:42 37.67843 -120.58078 24398 ft 337 kts 257°
2026-04-11 21:42 37.67514 -120.60984 23980 ft 335 kts 257°
2026-04-11 21:42 37.67178 -120.63888 23553 ft 334 kts 256°
2026-04-11 21:42 37.66837 -120.66798 23066 ft 332 kts 256°
2026-04-11 21:43 37.66504 -120.69633 22621 ft 330 kts 256°
2026-04-11 21:43 37.66166 -120.72487 22180 ft 327 kts 256°
2026-04-11 21:43 37.65829 -120.75329 21738 ft 325 kts 256°
2026-04-11 21:43 37.65492 -120.78147 21277 ft 321 kts 256°
2026-04-11 21:44 37.65163 -120.80887 20836 ft 316 kts 256°
2026-04-11 21:44 37.64832 -120.83630 20408 ft 317 kts 256°
2026-04-11 21:44 37.64496 -120.86400 20093 ft 321 kts 256°
2026-04-11 21:44 37.64166 -120.89138 19493 ft 313 kts 256°
2026-04-11 21:45 37.63849 -120.91790 19051 ft 299 kts 256°
2026-04-11 21:45 37.63541 -120.94354 18645 ft 290 kts 256°
2026-04-11 21:45 37.63477 -120.96953 18263 ft 308 kts 271°
2026-04-11 21:45 37.63930 -120.99620 17773 ft 319 kts 276°
2026-04-11 21:46 37.64472 -121.02353 17293 ft 321 kts 276°
2026-04-11 21:46 37.65013 -121.05097 16820 ft 320 kts 276°
2026-04-11 21:46 37.65539 -121.07820 16429 ft 318 kts 276°
2026-04-11 21:46 37.66054 -121.10536 15970 ft 317 kts 276°
2026-04-11 21:47 37.66555 -121.13210 15534 ft 317 kts 276°
2026-04-11 21:47 37.67568 -121.18669 14636 ft 318 kts 276°
2026-04-11 21:47 37.68064 -121.21349 14218 ft 314 kts 276°
2026-04-11 21:48 37.68560 -121.24028 13836 ft 311 kts 276°
2026-04-11 21:48 37.69048 -121.26669 13455 ft 304 kts 276°
2026-04-11 21:48 37.69523 -121.29240 13093 ft 292 kts 276°
2026-04-11 21:48 37.69971 -121.31661 12639 ft 279 kts 275°
2026-04-11 21:49 37.70400 -121.33984 12285 ft 261 kts 275°
2026-04-11 21:49 37.70798 -121.36146 11978 ft 244 kts 275°
2026-04-11 21:49 37.71168 -121.38164 11722 ft 229 kts 274°
2026-04-11 21:49 37.71525 -121.40164 11468 ft 238 kts 274°
2026-04-11 21:50 37.71889 -121.42193 11185 ft 240 kts 275°
2026-04-11 21:50 37.72264 -121.44254 10866 ft 238 kts 275°
2026-04-11 21:50 37.72635 -121.46286 10578 ft 235 kts 274°
2026-04-11 21:50 37.72998 -121.48273 10283 ft 232 kts 274°
2026-04-11 21:51 37.73357 -121.50245 10026 ft 227 kts 274°
2026-04-11 21:51 37.73707 -121.52148 9926 ft 219 kts 274°
2026-04-11 21:51 37.74052 -121.54055 9845 ft 227 kts 274°
2026-04-11 21:51 37.74403 -121.56006 9745 ft 233 kts 275°
2026-04-11 21:52 37.74770 -121.58018 9659 ft 232 kts 275°
2026-04-11 21:52 37.75133 -121.60003 9556 ft 232 kts 275°
2026-04-11 21:52 37.75491 -121.61967 9433 ft 231 kts 275°
2026-04-11 21:52 37.75852 -121.63945 9351 ft 231 kts 275°
2026-04-11 21:53 37.76212 -121.65929 9226 ft 229 kts 275°
2026-04-11 21:53 37.76567 -121.67879 9142 ft 226 kts 275°
2026-04-11 21:53 37.76913 -121.69790 9037 ft 224 kts 275°
2026-04-11 21:53 37.77259 -121.71708 8935 ft 223 kts 274°
2026-04-11 21:54 37.77605 -121.73643 8807 ft 230 kts 275°
2026-04-11 21:54 37.77962 -121.75633 8661 ft 233 kts 275°
2026-04-11 21:54 37.78322 -121.77630 8506 ft 231 kts 274°
2026-04-11 21:54 37.78673 -121.79580 8363 ft 230 kts 274°
2026-04-11 21:55 37.79034 -121.81541 8234 ft 225 kts 274°
2026-04-11 21:55 37.79600 -121.83380 8086 ft 229 kts 298°
2026-04-11 21:55 37.80876 -121.84647 8050 ft 249 kts 333°
2026-04-11 21:55 37.82640 -121.85013 8057 ft 265 kts 358°
2026-04-11 21:56 37.84513 -121.84918 8013 ft 269 kts
2026-04-11 21:56 37.86343 -121.84770 7997 ft 263 kts
2026-04-11 21:56 37.88162 -121.84630 7999 ft 260 kts
2026-04-11 21:56 37.89969 -121.84482 7996 ft 260 kts
2026-04-11 21:57 37.91789 -121.84317 7999 ft 264 kts
2026-04-11 21:57 37.93630 -121.84164 8004 ft 269 kts
2026-04-11 21:57 37.95488 -121.84015 7986 ft 264 kts
2026-04-11 21:57 37.97274 -121.84185 7939 ft 253 kts 336°
2026-04-11 21:58 37.98719 -121.85363 7917 ft 244 kts 304°
2026-04-11 21:58 37.99694 -121.87093 7829 ft 240 kts 293°
2026-04-11 21:58 38.00556 -121.88878 7754 ft 240 kts 292°
2026-04-11 21:58 38.01414 -121.90695 7629 ft 239 kts 292°
2026-04-11 21:59 38.02282 -121.92497 7506 ft 238 kts 294°
2026-04-11 21:59 38.03021 -121.94322 7331 ft 221 kts 271°
2026-04-11 21:59 38.02803 -121.96057 7188 ft 193 kts 229°
2026-04-11 21:59 38.01970 -121.97383 7167 ft 196 kts 223°
2026-04-11 22:00 38.01088 -121.98713 7103 ft 199 kts 223°
2026-04-11 22:00 38.00201 -122.00045 7063 ft 196 kts 223°
2026-04-11 22:00 37.99329 -122.01355 7028 ft 192 kts 223°
2026-04-11 22:00 37.98462 -122.02654 7027 ft 193 kts 222°
2026-04-11 22:01 37.97601 -122.03941 6990 ft 194 kts 222°
2026-04-11 22:01 37.96723 -122.05256 6977 ft 195 kts 223°
2026-04-11 22:01 37.95837 -122.06582 6970 ft 196 kts 223°
2026-04-11 22:01 37.94966 -122.07887 6988 ft 195 kts 223°
2026-04-11 22:02 37.94085 -122.09207 6970 ft 195 kts 223°
2026-04-11 22:02 37.93218 -122.10505 6961 ft 194 kts 223°
2026-04-11 22:02 37.92352 -122.11800 6988 ft 191 kts 223°
2026-04-11 22:02 37.91497 -122.13077 6890 ft 190 kts 224°
2026-04-11 22:03 37.90645 -122.14364 6574 ft 190 kts 223°
2026-04-11 22:03 37.89783 -122.15647 6204 ft 191 kts 223°
2026-04-11 22:03 37.88940 -122.16907 5894 ft 186 kts 223°
2026-04-11 22:03 37.88106 -122.18152 5496 ft 184 kts 223°
2026-04-11 22:04 37.87294 -122.19376 5125 ft 181 kts 225°
2026-04-11 22:04 37.86513 -122.20569 5037 ft 176 kts 221°
2026-04-11 22:04 37.85575 -122.21568 4847 ft 179 kts 205°
2026-04-11 22:04 37.84472 -122.22254 4636 ft 173 kts 204°
2026-04-11 22:05 37.83425 -122.22948 4410 ft 165 kts 204°
2026-04-11 22:05 37.82452 -122.23597 4210 ft 155 kts 204°
2026-04-11 22:05 37.81529 -122.24213 4000 ft 143 kts 204°
2026-04-11 22:05 37.80871 -122.25067 3862 ft 148 kts 242°
2026-04-11 22:06 37.80930 -122.26575 3833 ft 192 kts 279°
2026-04-11 22:06 37.81469 -122.28140 3911 ft 195 kts 283°
2026-04-11 22:06 37.82016 -122.29730 4067 ft 198 kts 283°
2026-04-11 22:06 37.82570 -122.31339 4197 ft 199 kts 283°
2026-04-11 22:07 37.83120 -122.32923 4311 ft 199 kts 286°
2026-04-11 22:07 37.84082 -122.34261 4368 ft 217 kts 323°
2026-04-11 22:07 37.85582 -122.34703 4504 ft 229 kts
2026-04-11 22:07 37.87106 -122.34179 4679 ft 230 kts 23°
2026-04-11 22:08 37.88604 -122.33426 4807 ft 230 kts 33°
2026-04-11 22:08 37.89719 -122.32072 4904 ft 216 kts 71°
2026-04-11 22:08 37.90013 -122.30911 4948 ft 201 kts 96°
2026-04-11 22:08 37.89613 -122.28831 4990 ft 178 kts 124°
2026-04-11 22:09 37.89298 -122.27865 4995 ft 180 kts 123°
2026-04-11 22:09 37.88682 -122.25899 4989 ft 180 kts 123°
2026-04-11 22:09 37.88371 -122.24904 4974 ft 180 kts 123°
2026-04-11 22:09 37.87914 -122.23454 4991 ft 178 kts 125°
2026-04-11 22:10 37.87162 -122.22341 4977 ft 159 kts 161°
2026-04-11 22:10 37.86132 -122.22018 4997 ft 156 kts 173°
2026-04-11 22:10 37.85036 -122.21788 4984 ft 158 kts 180°
2026-04-11 22:10 37.84028 -122.22198 4998 ft 157 kts 207°
2026-04-11 22:11 37.83116 -122.22981 4991 ft 159 kts 209°
2026-04-11 22:11 37.82195 -122.23764 4998 ft 160 kts 209°
2026-04-11 22:11 37.81880 -122.24029 4995 ft 160 kts 207°